Time,TemperatureF,DewpointF,PressureIn,WindDirection,WindDirectionDegrees,WindSpeedMPH,WindSpeedGustMPH,Humidity,HourlyPrecipIn,Conditions,Clouds,dailyrainin,SoftwareType,DateUTC
2013-06-09 00:00:00,60.8,56.6,30.00,WSW,248,3.0,4.0,86,0.00,,---,0.73,VWS V14.01,2013-06-09 04:00:00,
2013-06-09 00:17:00,60.5,56.3,30.01,West,276,3.0,6.0,86,0.00,,---,0.73,VWS V14.01,2013-06-09 04:17:00,
2013-06-09 00:20:00,60.5,56.3,30.01,West,263,3.0,6.0,86,0.00,,---,0.73,VWS V14.01,2013-06-09 04:20:00,
2013-06-09 00:23:00,60.5,56.3,30.01,West,271,1.0,7.0,86,0.00,,---,0.73,VWS V14.01,2013-06-09 04:23:00,
2013-06-09 00:26:00,60.5,56.3,30.01,WNW,302,3.0,7.0,86,0.00,,---,0.73,VWS V14.01,2013-06-09 04:26:00,
2013-06-09 00:28:00,60.4,56.2,30.01,WNW,294,3.0,7.0,86,0.00,,---,0.73,VWS V14.01,2013-06-09 04:28:00,
2013-06-09 00:29:00,60.4,56.2,30.01,West,274,2.0,4.0,86,0.00,,---,0.73,VWS V14.01,2013-06-09 04:29:00,
2013-06-09 00:32:00,60.3,56.1,30.01,West,266,3.0,4.0,86,0.00,,---,0.73,VWS V14.01,2013-06-09 04:32:00,
2013-06-09 00:33:00,60.3,56.4,30.01,WSW,250,5.0,5.0,87,0.00,,---,0.73,VWS V14.01,2013-06-09 04:33:00,
2013-06-09 00:34:00,60.3,56.4,30.01,West,272,2.0,5.0,87,0.00,,---,0.73,VWS V14.01,2013-06-09 04:34:00,
2013-06-09 00:37:00,60.3,56.4,30.01,WSW,248,3.0,5.0,87,0.00,,---,0.73,VWS V14.01,2013-06-09 04:37:00,
2013-06-09 00:39:00,60.3,56.4,30.01,WSW,240,6.0,6.0,87,0.00,,---,0.73,VWS V14.01,2013-06-09 04:39:00,
2013-06-09 00:40:00,60.3,56.4,30.01,WSW,244,3.0,6.0,87,0.00,,---,0.73,VWS V14.01,2013-06-09 04:40:00,
2013-06-09 00:44:00,60.3,56.4,30.01,West,273,2.0,6.0,87,0.00,,---,0.73,VWS V14.01,2013-06-09 04:44:00,
2013-06-09 00:45:00,60.3,56.4,30.01,NW,318,1.0,6.0,87,0.00,,---,0.73,VWS V14.01,2013-06-09 04:45:00,
2013-06-09 00:47:00,60.2,56.3,30.01,NW,308,4.0,6.0,87,0.00,,---,0.73,VWS V14.01,2013-06-09 04:47:00,
2013-06-09 00:49:00,60.2,56.3,30.01,WNW,288,1.0,7.0,87,0.00,,---,0.73,VWS V14.01,2013-06-09 04:49:00,
2013-06-09 00:50:00,60.2,56.3,30.01,WNW,295,1.0,7.0,87,0.00,,---,0.73,VWS V14.01,2013-06-09 04:50:00,
2013-06-09 00:52:00,60.2,56.3,30.01,WSW,257,4.0,7.0,87,0.00,,---,0.73,VWS V14.01,2013-06-09 04:52:00,
2013-06-09 00:54:00,60.2,56.3,30.01,NW,318,4.0,7.0,87,0.00,,---,0.73,VWS V14.01,2013-06-09 04:54:00,
2013-06-09 00:56:00,60.1,56.2,30.01,West,273,3.0,7.0,87,0.00,,---,0.73,VWS V14.01,2013-06-09 04:56:00,
2013-06-09 00:57:00,60.1,56.2,30.01,WNW,290,5.0,7.0,87,0.00,,---,0.73,VWS V14.01,2013-06-09 04:57:00,
2013-06-09 01:00:00,60.1,56.2,30.01,WSW,257,3.0,6.0,87,0.00,,---,0.00,VWS V14.01,2013-06-09 05:00:00,
2013-06-09 01:01:00,60.1,56.2,30.01,WNW,285,2.0,6.0,87,0.00,,---,0.00,VWS V14.01,2013-06-09 05:01:00,
2013-06-09 01:02:00,60.1,56.2,30.01,West,267,3.0,6.0,87,0.00,,---,0.00,VWS V14.01,2013-06-09 05:02:00,
2013-06-09 01:03:00,60.0,56.1,30.01,West,277,3.0,6.0,87,0.00,,---,0.00,VWS V14.01,2013-06-09 05:03:00,
2013-06-09 01:05:00,60.0,56.1,30.01,WNW,283,2.0,6.0,87,0.00,,---,0.00,VWS V14.01,2013-06-09 05:05:00,
2013-06-09 01:07:00,60.0,56.1,30.01,West,269,3.0,6.0,87,0.00,,---,0.00,VWS V14.01,2013-06-09 05:07:00,
2013-06-09 01:08:00,60.0,56.1,30.01,WSW,242,4.0,6.0,87,0.00,,---,0.00,VWS V14.01,2013-06-09 05:08:00,
2013-06-09 01:12:00,60.0,56.1,30.01,West,271,2.0,6.0,87,0.00,,---,0.00,VWS V14.01,2013-06-09 05:12:00,
2013-06-09 01:13:00,59.9,56.0,30.01,SW,236,2.0,6.0,87,0.00,,---,0.00,VWS V14.01,2013-06-09 05:13:00,
2013-06-09 01:17:00,59.9,56.0,30.01,West,276,1.0,7.0,87,0.00,,---,0.00,VWS V14.01,2013-06-09 05:17:00,
2013-06-09 01:18:00,59.9,56.0,30.01,WSW,255,1.0,7.0,87,0.00,,---,0.00,VWS V14.01,2013-06-09 05:18:00,
2013-06-09 01:19:00,59.9,56.0,30.01,West,271,3.0,7.0,87,0.00,,---,0.00,VWS V14.01,2013-06-09 05:19:00,
2013-06-09 01:21:00,59.9,56.0,30.00,WNW,290,1.0,7.0,87,0.00,,---,0.00,VWS V14.01,2013-06-09 05:21:00,
2013-06-09 01:22:00,59.8,55.9,30.00,West,269,3.0,7.0,87,0.00,,---,0.00,VWS V14.01,2013-06-09 05:22:00,
2013-06-09 01:24:00,59.8,56.2,30.00,West,270,3.0,7.0,88,0.00,,---,0.00,VWS V14.01,2013-06-09 05:24:00,
2013-06-09 01:25:00,59.8,56.2,30.00,West,259,2.0,7.0,88,0.00,,---,0.00,VWS V14.01,2013-06-09 05:25:00,
2013-06-09 01:27:00,59.8,56.2,30.00,West,267,3.0,7.0,88,0.00,,---,0.00,VWS V14.01,2013-06-09 05:27:00,
2013-06-09 01:28:00,59.8,56.2,30.00,West,277,2.0,7.0,88,0.00,,---,0.00,VWS V14.01,2013-06-09 05:28:00,
2013-06-09 01:29:00,59.7,56.2,30.00,WSW,254,3.0,3.0,88,0.00,,---,0.00,VWS V14.01,2013-06-09 05:29:00,
2013-06-09 01:30:00,59.7,56.2,30.00,West,278,2.0,3.0,88,0.00,,---,0.00,VWS V14.01,2013-06-09 05:30:00,
2013-06-09 01:32:00,59.6,56.0,30.00,West,278,2.0,6.0,88,0.00,,---,0.00,VWS V14.01,2013-06-09 05:32:00,
2013-06-09 01:33:00,59.6,56.0,30.00,West,267,3.0,6.0,88,0.00,,---,0.00,VWS V14.01,2013-06-09 05:33:00,
2013-06-09 01:35:00,59.6,56.0,30.00,NW,325,4.0,6.0,88,0.00,,---,0.00,VWS V14.01,2013-06-09 05:35:00,
2013-06-09 01:36:00,59.6,56.0,30.00,WSW,245,3.0,6.0,88,0.00,,---,0.00,VWS V14.01,2013-06-09 05:36:00,
2013-06-09 01:38:00,59.6,56.0,30.00,West,276,2.0,6.0,88,0.00,,---,0.00,VWS V14.01,2013-06-09 05:38:00,
2013-06-09 01:39:00,59.6,56.0,30.00,WNW,295,6.0,6.0,88,0.00,,---,0.00,VWS V14.01,2013-06-09 05:39:00,
2013-06-09 01:40:00,59.5,56.0,30.00,NW,308,4.0,6.0,88,0.00,,---,0.00,VWS V14.01,2013-06-09 05:40:00,
2013-06-09 01:41:00,59.5,56.0,30.00,WNW,287,1.0,6.0,88,0.00,,---,0.00,VWS V14.01,2013-06-09 05:41:00,
2013-06-09 01:42:00,59.5,56.0,30.00,NW,314,2.0,7.0,88,0.00,,---,0.00,VWS V14.01,2013-06-09 05:42:00,
2013-06-09 01:43:00,59.5,55.6,30.00,West,279,3.0,7.0,87,0.00,,---,0.00,VWS V14.01,2013-06-09 05:43:00,
2013-06-09 01:44:00,59.5,55.6,30.01,WNW,290,4.0,7.0,87,0.00,,---,0.00,VWS V14.01,2013-06-09 05:44:00,
2013-06-09 01:46:00,59.5,55.6,30.01,West,279,1.0,7.0,87,0.00,,---,0.00,VWS V14.01,2013-06-09 05:46:00,
2013-06-09 01:48:00,59.5,55.6,30.00,WNW,298,3.0,7.0,87,0.00,,---,0.00,VWS V14.01,2013-06-09 05:48:00,
2013-06-09 01:49:00,59.4,55.5,30.00,West,276,2.0,7.0,87,0.00,,---,0.00,VWS V14.01,2013-06-09 05:49:00,
2013-06-09 01:50:00,59.5,56.0,30.00,WSW,255,3.0,7.0,88,0.00,,---,0.00,VWS V14.01,2013-06-09 05:50:00,
2013-06-09 01:52:00,59.4,55.8,30.00,WNW,289,3.0,7.0,88,0.00,,---,0.00,VWS V14.01,2013-06-09 05:52:00,
2013-06-09 01:53:00,59.4,55.8,30.00,NW,318,2.0,7.0,88,0.00,,---,0.00,VWS V14.01,2013-06-09 05:53:00,
2013-06-09 01:54:00,59.4,55.5,30.00,WNW,295,4.0,7.0,87,0.00,,---,0.00,VWS V14.01,2013-06-09 05:54:00,
2013-06-09 01:55:00,59.4,55.8,30.00,WNW,293,1.0,7.0,88,0.00,,---,0.00,VWS V14.01,2013-06-09 05:55:00,
2013-06-09 01:58:00,59.4,55.8,30.00,West,263,3.0,7.0,88,0.00,,---,0.00,VWS V14.01,2013-06-09 05:58:00,
2013-06-09 01:59:00,59.4,55.8,30.00,West,261,3.0,5.0,88,0.00,,---,0.00,VWS V14.01,2013-06-09 05:59:00,
2013-06-09 02:00:00,59.4,55.8,30.00,West,281,1.0,5.0,88,0.00,,---,0.00,VWS V14.01,2013-06-09 06:00:00,
2013-06-09 02:02:00,59.4,55.8,30.00,NW,311,1.0,5.0,88,0.00,,---,0.00,VWS V14.01,2013-06-09 06:02:00,
2013-06-09 02:03:00,59.4,55.8,30.00,West,281,2.0,5.0,88,0.00,,---,0.00,VWS V14.01,2013-06-09 06:03:00,
2013-06-09 02:04:00,59.3,55.8,30.00,WNW,295,2.0,5.0,88,0.00,,---,0.00,VWS V14.01,2013-06-09 06:04:00,
2013-06-09 02:05:00,59.3,55.8,30.00,NW,304,2.0,5.0,88,0.00,,---,0.00,VWS V14.01,2013-06-09 06:05:00,
2013-06-09 02:08:00,59.3,56.1,30.00,WNW,302,2.0,5.0,89,0.00,,---,0.00,VWS V14.01,2013-06-09 06:08:00,
2013-06-09 02:09:00,59.3,56.1,30.00,WSW,255,3.0,5.0,89,0.00,,---,0.00,VWS V14.01,2013-06-09 06:09:00,
2013-06-09 02:10:00,59.3,56.1,30.00,WSW,242,2.0,5.0,89,0.00,,---,0.00,VWS V14.01,2013-06-09 06:10:00,
2013-06-09 02:14:00,59.3,56.1,30.00,SW,229,5.0,6.0,89,0.00,,---,0.00,VWS V14.01,2013-06-09 06:14:00,
2013-06-09 02:15:00,59.3,56.1,30.01,WSW,243,5.0,6.0,89,0.00,,---,0.00,VWS V14.01,2013-06-09 06:15:00,
2013-06-09 02:16:00,59.3,56.1,30.01,WSW,255,2.0,6.0,89,0.00,,---,0.00,VWS V14.01,2013-06-09 06:16:00,
2013-06-09 02:19:00,59.3,56.1,30.01,West,271,3.0,9.0,89,0.00,,---,0.00,VWS V14.01,2013-06-09 06:19:00,
2013-06-09 02:20:00,59.3,56.1,30.01,WNW,300,3.0,9.0,89,0.00,,---,0.00,VWS V14.01,2013-06-09 06:20:00,
2013-06-09 02:21:00,59.2,56.0,30.01,WSW,257,1.0,9.0,89,0.00,,---,0.00,VWS V14.01,2013-06-09 06:21:00,
2013-06-09 02:23:00,59.2,56.0,30.01,West,280,0.0,9.0,89,0.00,,---,0.00,VWS V14.01,2013-06-09 06:23:00,
2013-06-09 02:24:00,59.1,55.9,30.01,West,267,2.0,9.0,89,0.00,,---,0.00,VWS V14.01,2013-06-09 06:24:00,
2013-06-09 02:26:00,59.1,55.9,30.01,WNW,284,2.0,9.0,89,0.00,,---,0.00,VWS V14.01,2013-06-09 06:26:00,
2013-06-09 02:27:00,59.1,55.9,30.01,West,276,2.0,9.0,89,0.00,,---,0.00,VWS V14.01,2013-06-09 06:27:00,
2013-06-09 02:28:00,59.1,55.9,30.01,NNW,330,4.0,4.0,89,0.00,,---,0.00,VWS V14.01,2013-06-09 06:28:00,
2013-06-09 02:30:00,59.1,55.9,30.01,West,266,4.0,5.0,89,0.00,,---,0.00,VWS V14.01,2013-06-09 06:30:00,
2013-06-09 02:32:00,59.1,55.9,30.01,WSW,254,5.0,7.0,89,0.00,,---,0.00,VWS V14.01,2013-06-09 06:32:00,
2013-06-09 02:33:00,59.1,55.9,30.01,WNW,291,4.0,7.0,89,0.00,,---,0.00,VWS V14.01,2013-06-09 06:33:00,
2013-06-09 02:35:00,59.1,55.9,30.01,West,269,1.0,7.0,89,0.00,,---,0.00,VWS V14.01,2013-06-09 06:35:00,
2013-06-09 02:38:00,59.2,56.0,30.01,West,270,2.0,7.0,89,0.00,,---,0.00,VWS V14.01,2013-06-09 06:38:00,
2013-06-09 02:40:00,59.1,55.9,30.02,West,279,3.0,7.0,89,0.00,,---,0.00,VWS V14.01,2013-06-09 06:40:00,
2013-06-09 02:41:00,59.1,55.9,30.02,West,274,3.0,7.0,89,0.00,,---,0.00,VWS V14.01,2013-06-09 06:41:00,
2013-06-09 02:44:00,59.1,55.9,30.02,West,269,3.0,7.0,89,0.00,,---,0.00,VWS V14.01,2013-06-09 06:44:00,
2013-06-09 02:45:00,59.1,55.9,30.02,WSW,245,4.0,7.0,89,0.00,,---,0.00,VWS V14.01,2013-06-09 06:45:00,
2013-06-09 02:46:00,59.1,55.9,30.02,West,263,4.0,7.0,89,0.00,,---,0.00,VWS V14.01,2013-06-09 06:46:00,
2013-06-09 02:49:00,59.1,55.9,30.02,West,269,2.0,7.0,89,0.00,,---,0.00,VWS V14.01,2013-06-09 06:49:00,
2013-06-09 02:50:00,59.1,55.9,30.02,WNW,288,2.0,7.0,89,0.00,,---,0.00,VWS V14.01,2013-06-09 06:50:00,
2013-06-09 02:52:00,59.1,55.9,30.02,West,277,2.0,7.0,89,0.00,,---,0.00,VWS V14.01,2013-06-09 06:52:00,
2013-06-09 02:53:00,59.1,55.9,30.01,West,266,1.0,7.0,89,0.00,,---,0.00,VWS V14.01,2013-06-09 06:53:00,
2013-06-09 02:55:00,59.0,55.8,30.01,WSW,248,4.0,7.0,89,0.00,,---,0.00,VWS V14.01,2013-06-09 06:55:00,
2013-06-09 02:57:00,59.0,55.8,30.01,WSW,243,3.0,7.0,89,0.00,,---,0.00,VWS V14.01,2013-06-09 06:57:00,
2013-06-09 02:58:00,59.0,55.8,30.02,WNW,297,2.0,7.0,89,0.00,,---,0.00,VWS V14.01,2013-06-09 06:58:00,
2013-06-09 03:00:00,58.9,55.7,30.02,NW,318,1.0,3.0,89,0.00,,---,0.00,VWS V14.01,2013-06-09 07:00:00,
2013-06-09 03:01:00,58.9,55.7,30.02,WSW,244,2.0,3.0,89,0.00,,---,0.00,VWS V14.01,2013-06-09 07:01:00,
2013-06-09 03:02:00,58.8,55.6,30.02,WSW,255,2.0,5.0,89,0.00,,---,0.00,VWS V14.01,2013-06-09 07:02:00,
2013-06-09 03:04:00,58.8,55.6,30.02,West,280,1.0,5.0,89,0.00,,---,0.00,VWS V14.01,2013-06-09 07:04:00,
2013-06-09 03:05:00,58.7,55.5,30.01,NW,318,1.0,5.0,89,0.00,,---,0.00,VWS V14.01,2013-06-09 07:05:00,
2013-06-09 03:07:00,58.7,55.8,30.02,NW,316,0.0,5.0,90,0.00,,---,0.00,VWS V14.01,2013-06-09 07:07:00,
2013-06-09 03:09:00,58.6,55.7,30.02,WNW,298,1.0,5.0,90,0.00,,---,0.00,VWS V14.01,2013-06-09 07:09:00,
2013-06-09 03:10:00,58.6,55.7,30.01,WSW,250,2.0,5.0,90,0.00,,---,0.00,VWS V14.01,2013-06-09 07:10:00,
2013-06-09 03:12:00,58.5,55.6,30.01,West,276,1.0,5.0,90,0.00,,---,0.00,VWS V14.01,2013-06-09 07:12:00,
2013-06-09 03:14:00,58.5,55.6,30.02,WNW,288,1.0,5.0,90,0.00,,---,0.00,VWS V14.01,2013-06-09 07:14:00,
2013-06-09 03:15:00,58.4,55.5,30.02,WNW,298,1.0,5.0,90,0.00,,---,0.00,VWS V14.01,2013-06-09 07:15:00,
2013-06-09 03:17:00,58.4,55.5,30.02,WNW,285,1.0,5.0,90,0.00,,---,0.00,VWS V14.01,2013-06-09 07:17:00,
2013-06-09 03:18:00,58.4,55.5,30.02,NW,307,0.0,5.0,90,0.00,,---,0.00,VWS V14.01,2013-06-09 07:18:00,
2013-06-09 03:20:00,58.3,55.7,30.02,WNW,300,1.0,5.0,91,0.00,,---,0.00,VWS V14.01,2013-06-09 07:20:00,
2013-06-09 03:22:00,58.2,55.6,30.02,WNW,288,0.0,5.0,91,0.00,,---,0.00,VWS V14.01,2013-06-09 07:22:00,
2013-06-09 03:25:00,58.2,55.6,30.02,NW,305,2.0,5.0,91,0.00,,---,0.00,VWS V14.01,2013-06-09 07:25:00,
2013-06-09 03:27:00,58.1,55.5,30.02,West,277,2.0,5.0,91,0.00,,---,0.00,VWS V14.01,2013-06-09 07:27:00,
2013-06-09 03:30:00,58.0,55.4,30.02,WNW,293,1.0,2.0,91,0.00,,---,0.00,VWS V14.01,2013-06-09 07:30:00,
2013-06-09 03:31:00,58.0,55.4,30.02,West,260,2.0,2.0,91,0.00,,---,0.00,VWS V14.01,2013-06-09 07:31:00,
2013-06-09 03:32:00,58.0,55.4,30.02,WNW,282,0.0,2.0,91,0.00,,---,0.00,VWS V14.01,2013-06-09 07:32:00,
2013-06-09 03:34:00,57.9,55.3,30.02,WNW,290,0.0,2.0,91,0.00,,---,0.00,VWS V14.01,2013-06-09 07:34:00,
2013-06-09 03:36:00,57.9,55.3,30.02,West,271,1.0,2.0,91,0.00,,---,0.00,VWS V14.01,2013-06-09 07:36:00,
2013-06-09 03:37:00,57.8,55.2,30.02,West,279,1.0,2.0,91,0.00,,---,0.00,VWS V14.01,2013-06-09 07:37:00,
2013-06-09 03:39:00,57.7,55.1,30.02,West,266,3.0,3.0,91,0.00,,---,0.00,VWS V14.01,2013-06-09 07:39:00,
2013-06-09 03:41:00,57.6,55.3,30.02,West,264,4.0,4.0,92,0.00,,---,0.00,VWS V14.01,2013-06-09 07:41:00,
2013-06-09 03:43:00,57.6,55.3,30.02,WSW,252,2.0,5.0,92,0.00,,---,0.00,VWS V14.01,2013-06-09 07:43:00,
2013-06-09 03:44:00,57.7,55.4,30.02,WNW,285,1.0,5.0,92,0.00,,---,0.00,VWS V14.01,2013-06-09 07:44:00,
2013-06-09 03:46:00,57.7,55.4,30.02,WNW,288,1.0,5.0,92,0.00,,---,0.00,VWS V14.01,2013-06-09 07:46:00,
2013-06-09 03:47:00,57.7,55.4,30.02,WNW,299,0.0,5.0,92,0.00,,---,0.00,VWS V14.01,2013-06-09 07:47:00,
2013-06-09 03:48:00,57.7,55.4,30.02,WNW,286,0.0,5.0,92,0.00,,---,0.00,VWS V14.01,2013-06-09 07:48:00,
2013-06-09 03:51:00,57.8,55.5,30.02,West,267,0.0,5.0,92,0.00,,---,0.00,VWS V14.01,2013-06-09 07:51:00,
2013-06-09 03:52:00,57.8,55.5,30.02,West,267,2.0,5.0,92,0.00,,---,0.00,VWS V14.01,2013-06-09 07:52:00,
2013-06-09 03:55:00,57.8,55.2,30.02,West,278,0.0,5.0,91,0.00,,---,0.00,VWS V14.01,2013-06-09 07:55:00,
2013-06-09 03:57:00,57.8,55.2,30.02,WNW,293,2.0,5.0,91,0.00,,---,0.00,VWS V14.01,2013-06-09 07:57:00,
2013-06-09 03:58:00,57.8,55.2,30.02,WNW,283,2.0,5.0,91,0.00,,---,0.00,VWS V14.01,2013-06-09 07:58:00,
2013-06-09 03:59:00,57.8,55.2,30.02,West,280,1.0,2.0,91,0.00,,---,0.00,VWS V14.01,2013-06-09 07:59:00,
2013-06-09 04:02:00,57.8,55.2,30.02,WNW,288,1.0,3.0,91,0.00,,---,0.00,VWS V14.01,2013-06-09 08:02:00,
2013-06-09 04:03:00,57.8,55.2,30.02,West,262,3.0,3.0,91,0.00,,---,0.00,VWS V14.01,2013-06-09 08:03:00,
2013-06-09 04:04:00,57.8,55.2,30.02,West,264,3.0,3.0,91,0.00,,---,0.00,VWS V14.01,2013-06-09 08:04:00,
2013-06-09 04:06:00,57.8,55.2,30.03,WNW,289,2.0,3.0,91,0.00,,---,0.00,VWS V14.01,2013-06-09 08:06:00,
2013-06-09 04:07:00,57.8,55.2,30.03,WNW,293,1.0,3.0,91,0.00,,---,0.00,VWS V14.01,2013-06-09 08:07:00,
2013-06-09 04:08:00,57.8,55.2,30.03,WNW,300,2.0,3.0,91,0.00,,---,0.00,VWS V14.01,2013-06-09 08:08:00,
2013-06-09 04:10:00,57.7,55.1,30.02,WNW,284,2.0,3.0,91,0.00,,---,0.00,VWS V14.01,2013-06-09 08:10:00,
2013-06-09 04:11:00,57.8,55.2,30.02,West,277,1.0,3.0,91,0.00,,---,0.00,VWS V14.01,2013-06-09 08:11:00,
2013-06-09 04:13:00,57.8,55.2,30.03,West,277,1.0,3.0,91,0.00,,---,0.00,VWS V14.01,2013-06-09 08:13:00,
2013-06-09 04:14:00,57.8,55.2,30.03,WNW,287,1.0,3.0,91,0.00,,---,0.00,VWS V14.01,2013-06-09 08:14:00,
2013-06-09 04:16:00,57.8,55.2,30.03,West,273,1.0,3.0,91,0.00,,---,0.00,VWS V14.01,2013-06-09 08:16:00,
2013-06-09 04:18:00,57.8,55.2,30.02,WNW,285,1.0,3.0,91,0.00,,---,0.00,VWS V14.01,2013-06-09 08:18:00,
2013-06-09 04:19:00,57.8,55.2,30.02,West,280,0.0,3.0,91,0.00,,---,0.00,VWS V14.01,2013-06-09 08:19:00,
2013-06-09 04:20:00,57.9,55.3,30.02,West,278,0.0,3.0,91,0.00,,---,0.00,VWS V14.01,2013-06-09 08:20:00,
2013-06-09 04:21:00,57.9,55.3,30.02,West,280,0.0,3.0,91,0.00,,---,0.00,VWS V14.01,2013-06-09 08:21:00,
2013-06-09 04:23:00,57.9,55.0,30.02,WNW,283,1.0,3.0,90,0.00,,---,0.00,VWS V14.01,2013-06-09 08:23:00,
2013-06-09 04:24:00,57.9,55.0,30.02,WNW,285,0.0,3.0,90,0.00,,---,0.00,VWS V14.01,2013-06-09 08:24:00,
2013-06-09 04:25:00,57.9,55.0,30.03,WNW,285,1.0,3.0,90,0.00,,---,0.00,VWS V14.01,2013-06-09 08:25:00,
2013-06-09 04:26:00,58.0,55.1,30.03,WNW,284,1.0,3.0,90,0.00,,---,0.00,VWS V14.01,2013-06-09 08:26:00,
2013-06-09 04:30:00,58.0,55.1,30.03,West,278,2.0,2.0,90,0.00,,---,0.00,VWS V14.01,2013-06-09 08:30:00,
2013-06-09 04:31:00,58.0,55.1,30.03,WNW,283,1.0,2.0,90,0.00,,---,0.00,VWS V14.01,2013-06-09 08:31:00,
2013-06-09 04:33:00,58.0,55.1,30.03,West,274,1.0,2.0,90,0.00,,---,0.00,VWS V14.01,2013-06-09 08:33:00,
2013-06-09 04:36:00,58.0,55.1,30.03,West,274,1.0,2.0,90,0.00,,---,0.00,VWS V14.01,2013-06-09 08:36:00,
2013-06-09 04:38:00,57.9,55.0,30.03,West,274,2.0,2.0,90,0.00,,---,0.00,VWS V14.01,2013-06-09 08:38:00,
2013-06-09 04:39:00,57.9,55.0,30.03,West,267,1.0,2.0,90,0.00,,---,0.00,VWS V14.01,2013-06-09 08:39:00,
2013-06-09 04:41:00,57.9,55.0,30.03,West,267,1.0,2.0,90,0.00,,---,0.00,VWS V14.01,2013-06-09 08:41:00,
2013-06-09 04:43:00,57.9,55.0,30.03,West,277,2.0,2.0,90,0.00,,---,0.00,VWS V14.01,2013-06-09 08:43:00,
2013-06-09 04:44:00,57.8,54.9,30.03,West,279,0.0,2.0,90,0.00,,---,0.00,VWS V14.01,2013-06-09 08:44:00,
2013-06-09 04:46:00,57.8,54.9,30.04,WNW,284,2.0,3.0,90,0.00,,---,0.00,VWS V14.01,2013-06-09 08:46:00,
2013-06-09 04:48:00,57.7,54.8,30.04,West,276,2.0,3.0,90,0.00,,---,0.00,VWS V14.01,2013-06-09 08:48:00,
2013-06-09 04:50:00,57.7,54.8,30.04,WNW,302,1.0,3.0,90,0.00,,---,0.00,VWS V14.01,2013-06-09 08:50:00,
2013-06-09 04:52:00,57.8,54.9,30.04,WNW,293,0.0,3.0,90,0.00,,---,0.00,VWS V14.01,2013-06-09 08:52:00,
2013-06-09 04:53:00,57.8,54.9,30.04,WNW,297,1.0,3.0,90,0.00,,---,0.00,VWS V14.01,2013-06-09 08:53:00,
2013-06-09 04:54:00,57.8,54.9,30.04,WNW,293,1.0,3.0,90,0.00,,---,0.00,VWS V14.01,2013-06-09 08:54:00,
2013-06-09 04:55:00,57.8,54.9,30.05,WNW,286,2.0,3.0,90,0.00,,---,0.00,VWS V14.01,2013-06-09 08:55:00,
2013-06-09 04:58:00,57.9,55.0,30.04,WNW,289,1.0,3.0,90,0.00,,---,0.00,VWS V14.01,2013-06-09 08:58:00,
2013-06-09 04:59:00,57.9,55.0,30.04,WNW,282,1.0,3.0,90,0.00,,---,0.00,VWS V14.01,2013-06-09 08:59:00,
2013-06-09 05:00:00,58.0,55.1,30.04,NW,316,1.0,3.0,90,0.00,,---,0.00,VWS V14.01,2013-06-09 09:00:00,
2013-06-09 05:01:00,58.0,55.1,30.04,West,277,2.0,3.0,90,0.00,,---,0.00,VWS V14.01,2013-06-09 09:01:00,
2013-06-09 05:02:00,58.0,55.1,30.04,WNW,285,2.0,3.0,90,0.00,,---,0.00,VWS V14.01,2013-06-09 09:02:00,
2013-06-09 05:03:00,58.0,55.1,30.04,WNW,291,1.0,3.0,90,0.00,,---,0.00,VWS V14.01,2013-06-09 09:03:00,
2013-06-09 05:04:00,58.0,55.1,30.04,WNW,288,2.0,4.0,90,0.00,,---,0.00,VWS V14.01,2013-06-09 09:04:00,
2013-06-09 05:06:00,58.1,55.2,30.04,WNW,298,1.0,4.0,90,0.00,,---,0.00,VWS V14.01,2013-06-09 09:06:00,
2013-06-09 05:07:00,58.1,55.2,30.05,WNW,295,2.0,4.0,90,0.00,,---,0.00,VWS V14.01,2013-06-09 09:07:00,
2013-06-09 05:08:00,58.1,55.2,30.04,WNW,291,1.0,4.0,90,0.00,,---,0.00,VWS V14.01,2013-06-09 09:08:00,
2013-06-09 05:10:00,58.1,55.2,30.05,West,266,2.0,4.0,90,0.00,,---,0.00,VWS V14.01,2013-06-09 09:10:00,
2013-06-09 05:11:00,58.2,55.3,30.05,West,280,2.0,4.0,90,0.00,,---,0.00,VWS V14.01,2013-06-09 09:11:00,
2013-06-09 05:12:00,58.1,55.2,30.05,West,279,3.0,4.0,90,0.00,,---,0.00,VWS V14.01,2013-06-09 09:12:00,
2013-06-09 05:13:00,58.1,55.2,30.05,WNW,293,1.0,4.0,90,0.00,,---,0.00,VWS V14.01,2013-06-09 09:13:00,
2013-06-09 05:16:00,58.1,55.2,30.05,West,276,1.0,4.0,90,0.00,,---,0.00,VWS V14.01,2013-06-09 09:16:00,
2013-06-09 05:17:00,58.1,55.2,30.05,West,279,0.0,4.0,90,0.00,,---,0.00,VWS V14.01,2013-06-09 09:17:00,
2013-06-09 05:18:00,58.1,55.2,30.05,NW,307,1.0,4.0,90,0.00,,---,0.00,VWS V14.01,2013-06-09 09:18:00,
2013-06-09 05:22:00,58.1,55.2,30.05,West,266,2.0,4.0,90,0.00,,---,0.00,VWS V14.01,2013-06-09 09:22:00,
2013-06-09 05:24:00,58.1,55.2,30.05,West,261,2.0,4.0,90,0.00,,---,0.00,VWS V14.01,2013-06-09 09:24:00,
2013-06-09 05:27:00,58.1,54.9,30.05,West,263,2.0,4.0,89,0.00,,---,0.00,VWS V14.01,2013-06-09 09:27:00,
2013-06-09 05:29:00,58.2,55.0,30.05,West,280,1.0,2.0,89,0.00,,---,0.00,VWS V14.01,2013-06-09 09:29:00,
2013-06-09 05:30:00,58.2,55.0,30.05,West,279,1.0,2.0,89,0.00,,---,0.00,VWS V14.01,2013-06-09 09:30:00,
2013-06-09 05:31:00,58.3,55.1,30.05,West,280,0.0,2.0,89,0.00,,---,0.00,VWS V14.01,2013-06-09 09:31:00,
2013-06-09 05:32:00,58.3,55.1,30.05,West,280,0.0,2.0,89,0.00,,---,0.00,VWS V14.01,2013-06-09 09:32:00,
2013-06-09 05:36:00,58.4,55.2,30.05,WNW,293,1.0,2.0,89,0.00,,---,0.00,VWS V14.01,2013-06-09 09:36:00,
2013-06-09 05:37:00,58.4,55.2,30.05,WNW,285,1.0,2.0,89,0.00,,---,0.00,VWS V14.01,2013-06-09 09:37:00,
2013-06-09 05:39:00,58.4,55.2,30.05,WNW,288,1.0,2.0,89,0.00,,---,0.00,VWS V14.01,2013-06-09 09:39:00,
2013-06-09 05:42:00,58.5,55.0,30.05,WNW,283,0.0,2.0,88,0.00,,---,0.00,VWS V14.01,2013-06-09 09:42:00,
2013-06-09 05:43:00,58.6,55.1,30.05,WNW,285,0.0,2.0,88,0.00,,---,0.00,VWS V14.01,2013-06-09 09:43:00,
2013-06-09 05:45:00,58.7,55.2,30.05,West,281,0.0,2.0,88,0.00,,---,0.00,VWS V14.01,2013-06-09 09:45:00,
2013-06-09 05:47:00,58.7,55.2,30.05,West,277,1.0,2.0,88,0.00,,---,0.00,VWS V14.01,2013-06-09 09:47:00,
2013-06-09 05:48:00,58.8,55.3,30.05,West,274,1.0,2.0,88,0.00,,---,0.00,VWS V14.01,2013-06-09 09:48:00,
2013-06-09 05:51:00,58.8,55.3,30.05,WSW,257,2.0,3.0,88,0.00,,---,0.00,VWS V14.01,2013-06-09 09:51:00,
2013-06-09 05:53:00,58.8,55.3,30.05,West,278,1.0,3.0,88,0.00,,---,0.00,VWS V14.01,2013-06-09 09:53:00,
2013-06-09 05:54:00,58.8,55.3,30.05,West,276,2.0,3.0,88,0.00,,---,0.00,VWS V14.01,2013-06-09 09:54:00,
2013-06-09 05:57:00,58.8,55.3,30.06,WNW,302,2.0,3.0,88,0.00,,---,0.00,VWS V14.01,2013-06-09 09:57:00,
2013-06-09 05:58:00,58.9,55.4,30.05,WNW,297,0.0,0.0,88,0.00,,---,0.00,VWS V14.01,2013-06-09 09:58:00,
2013-06-09 05:59:00,58.9,55.4,30.05,WNW,297,0.0,0.0,88,0.00,,---,0.00,VWS V14.01,2013-06-09 09:59:00,
2013-06-09 06:00:00,58.9,55.4,30.05,West,267,2.0,2.0,88,0.00,,---,0.00,VWS V14.01,2013-06-09 10:00:00,
2013-06-09 06:04:00,59.0,55.5,30.05,West,278,2.0,3.0,88,0.00,,---,0.00,VWS V14.01,2013-06-09 10:04:00,
2013-06-09 06:05:00,59.1,55.5,30.06,West,277,0.0,3.0,88,0.00,,---,0.00,VWS V14.01,2013-06-09 10:05:00,
2013-06-09 06:07:00,59.1,55.5,30.06,NW,311,1.0,3.0,88,0.00,,---,0.00,VWS V14.01,2013-06-09 10:07:00,
2013-06-09 06:09:00,59.1,55.5,30.06,WNW,288,0.0,3.0,88,0.00,,---,0.00,VWS V14.01,2013-06-09 10:09:00,
2013-06-09 06:10:00,59.1,55.5,30.06,WNW,285,1.0,3.0,88,0.00,,---,0.00,VWS V14.01,2013-06-09 10:10:00,
2013-06-09 06:11:00,59.1,55.5,30.06,WNW,285,1.0,3.0,88,0.00,,---,0.00,VWS V14.01,2013-06-09 10:11:00,
2013-06-09 06:14:00,59.2,55.7,30.06,WNW,284,1.0,3.0,88,0.00,,---,0.00,VWS V14.01,2013-06-09 10:14:00,
2013-06-09 06:15:00,59.2,55.7,30.06,NW,325,0.0,3.0,88,0.00,,---,0.00,VWS V14.01,2013-06-09 10:15:00,
2013-06-09 06:16:00,59.2,56.0,30.06,West,276,1.0,3.0,89,0.00,,---,0.00,VWS V14.01,2013-06-09 10:16:00,
2013-06-09 06:17:00,59.2,55.7,30.06,WNW,290,0.0,3.0,88,0.00,,---,0.00,VWS V14.01,2013-06-09 10:17:00,
2013-06-09 06:20:00,59.3,55.8,30.06,WNW,286,1.0,3.0,88,0.00,,---,0.00,VWS V14.01,2013-06-09 10:20:00,
2013-06-09 06:22:00,59.4,55.8,30.06,West,259,2.0,3.0,88,0.00,,---,0.00,VWS V14.01,2013-06-09 10:22:00,
2013-06-09 06:25:00,59.4,55.8,30.06,WNW,285,0.0,3.0,88,0.00,,---,0.00,VWS V14.01,2013-06-09 10:25:00,
2013-06-09 06:26:00,59.4,55.8,30.06,West,266,1.0,3.0,88,0.00,,---,0.00,VWS V14.01,2013-06-09 10:26:00,
2013-06-09 06:28:00,59.4,55.8,30.06,West,264,2.0,3.0,88,0.00,,---,0.00,VWS V14.01,2013-06-09 10:28:00,
2013-06-09 06:30:00,59.5,55.6,30.06,West,260,2.0,3.0,87,0.00,,---,0.00,VWS V14.01,2013-06-09 10:30:00,
2013-06-09 06:31:00,59.5,55.6,30.06,West,274,3.0,3.0,87,0.00,,---,0.00,VWS V14.01,2013-06-09 10:31:00,
2013-06-09 06:32:00,59.5,55.6,30.06,West,266,2.0,5.0,87,0.00,,---,0.00,VWS V14.01,2013-06-09 10:32:00,
2013-06-09 06:33:00,59.5,56.0,30.06,West,276,1.0,5.0,88,0.00,,---,0.00,VWS V14.01,2013-06-09 10:33:00,
2013-06-09 06:37:00,59.7,55.8,30.06,West,267,1.0,5.0,87,0.00,,---,0.00,VWS V14.01,2013-06-09 10:37:00,
2013-06-09 06:38:00,59.7,55.8,30.06,West,264,2.0,5.0,87,0.00,,---,0.00,VWS V14.01,2013-06-09 10:38:00,
2013-06-09 06:42:00,59.7,55.8,30.06,WNW,288,2.0,6.0,87,0.00,,---,0.00,VWS V14.01,2013-06-09 10:42:00,
2013-06-09 06:43:00,59.7,55.8,30.06,WSW,238,5.0,6.0,87,0.00,,---,0.00,VWS V14.01,2013-06-09 10:43:00,
2013-06-09 06:44:00,59.8,55.6,30.06,West,281,1.0,6.0,86,0.00,,---,0.00,VWS V14.01,2013-06-09 10:44:00,
2013-06-09 06:49:00,59.8,55.6,30.06,WNW,302,3.0,6.0,86,0.00,,---,0.00,VWS V14.01,2013-06-09 10:49:00,
2013-06-09 06:51:00,59.9,56.0,30.06,NW,308,0.0,6.0,87,0.00,,---,0.00,VWS V14.01,2013-06-09 10:51:00,
2013-06-09 06:54:00,59.9,55.7,30.06,NW,326,2.0,6.0,86,0.00,,---,0.00,VWS V14.01,2013-06-09 10:54:00,
2013-06-09 06:55:00,59.9,55.7,30.06,West,271,2.0,6.0,86,0.00,,---,0.00,VWS V14.01,2013-06-09 10:55:00,
2013-06-09 06:57:00,60.0,56.1,30.06,West,276,1.0,6.0,87,0.00,,---,0.00,VWS V14.01,2013-06-09 10:57:00,
2013-06-09 06:59:00,60.0,55.8,30.07,West,277,2.0,4.0,86,0.00,,---,0.00,VWS V14.01,2013-06-09 10:59:00,
2013-06-09 07:00:00,60.1,55.9,30.07,WNW,295,3.0,5.0,86,0.00,,---,0.00,VWS V14.01,2013-06-09 11:00:00,
2013-06-09 07:01:00,60.1,55.9,30.07,NW,304,3.0,5.0,86,0.00,,---,0.00,VWS V14.01,2013-06-09 11:01:00,
2013-06-09 07:02:00,60.2,56.0,30.07,SW,231,2.0,5.0,86,0.00,,---,0.00,VWS V14.01,2013-06-09 11:02:00,
2013-06-09 07:04:00,60.2,56.0,30.07,WSW,253,4.0,5.0,86,0.00,,---,0.00,VWS V14.01,2013-06-09 11:04:00,
2013-06-09 07:05:00,60.2,56.0,30.07,NW,311,6.0,6.0,86,0.00,,---,0.00,VWS V14.01,2013-06-09 11:05:00,
2013-06-09 07:06:00,60.3,56.1,30.07,WSW,255,4.0,6.0,86,0.00,,---,0.00,VWS V14.01,2013-06-09 11:06:00,
2013-06-09 07:07:00,60.3,55.8,30.07,WSW,254,3.0,6.0,85,0.00,,---,0.00,VWS V14.01,2013-06-09 11:07:00,
2013-06-09 07:10:00,60.3,55.8,30.07,WSW,248,3.0,7.0,85,0.00,,---,0.00,VWS V14.01,2013-06-09 11:10:00,
2013-06-09 07:11:00,60.3,55.8,30.07,West,277,3.0,7.0,85,0.00,,---,0.00,VWS V14.01,2013-06-09 11:11:00,
2013-06-09 07:12:00,60.3,55.8,30.07,NW,308,2.0,7.0,85,0.00,,---,0.00,VWS V14.01,2013-06-09 11:12:00,
2013-06-09 07:13:00,60.3,55.8,30.07,West,279,2.0,7.0,85,0.00,,---,0.00,VWS V14.01,2013-06-09 11:13:00,
2013-06-09 07:16:00,60.3,56.1,30.08,West,262,1.0,7.0,86,0.00,,---,0.00,VWS V14.01,2013-06-09 11:16:00,
2013-06-09 07:17:00,60.3,56.1,30.08,WNW,295,1.0,7.0,86,0.00,,---,0.00,VWS V14.01,2013-06-09 11:17:00,
2013-06-09 07:18:00,60.3,56.1,30.08,West,277,0.0,7.0,86,0.00,,---,0.00,VWS V14.01,2013-06-09 11:18:00,
2013-06-09 07:20:00,60.3,56.1,30.08,West,269,2.0,7.0,86,0.00,,---,0.00,VWS V14.01,2013-06-09 11:20:00,
2013-06-09 07:21:00,60.3,56.1,30.08,WNW,290,2.0,7.0,86,0.00,,---,0.00,VWS V14.01,2013-06-09 11:21:00,
2013-06-09 07:24:00,60.3,56.1,30.08,WSW,255,4.0,7.0,86,0.00,,---,0.00,VWS V14.01,2013-06-09 11:24:00,
2013-06-09 07:25:00,60.4,56.2,30.08,West,277,2.0,7.0,86,0.00,,---,0.00,VWS V14.01,2013-06-09 11:25:00,
2013-06-09 07:27:00,60.4,56.2,30.08,West,274,2.0,7.0,86,0.00,,---,0.00,VWS V14.01,2013-06-09 11:27:00,
2013-06-09 07:29:00,60.5,56.3,30.08,NNW,343,2.0,5.0,86,0.00,,---,0.00,VWS V14.01,2013-06-09 11:29:00,
2013-06-09 07:30:00,60.5,56.3,30.08,WSW,255,2.0,5.0,86,0.00,,---,0.00,VWS V14.01,2013-06-09 11:30:00,
2013-06-09 07:32:00,60.5,56.3,30.08,West,259,1.0,5.0,86,0.00,,---,0.00,VWS V14.01,2013-06-09 11:32:00,
2013-06-09 07:34:00,60.6,56.4,30.08,West,271,0.0,5.0,86,0.00,,---,0.00,VWS V14.01,2013-06-09 11:34:00,
2013-06-09 07:35:00,60.6,56.4,30.08,WSW,255,4.0,5.0,86,0.00,,---,0.00,VWS V14.01,2013-06-09 11:35:00,
2013-06-09 07:38:00,60.6,56.4,30.08,West,259,1.0,5.0,86,0.00,,---,0.00,VWS V14.01,2013-06-09 11:38:00,
2013-06-09 07:40:00,60.6,56.4,30.08,WSW,238,3.0,6.0,86,0.00,,---,0.00,VWS V14.01,2013-06-09 11:40:00,
2013-06-09 07:41:00,60.6,56.4,30.08,WSW,243,5.0,6.0,86,0.00,,---,0.00,VWS V14.01,2013-06-09 11:41:00,
2013-06-09 07:43:00,60.6,56.4,30.08,West,281,1.0,6.0,86,0.00,,---,0.00,VWS V14.01,2013-06-09 11:43:00,
2013-06-09 07:45:00,60.7,56.5,30.08,NNW,332,0.0,6.0,86,0.00,,---,0.00,VWS V14.01,2013-06-09 11:45:00,
2013-06-09 07:46:00,60.7,56.5,30.08,West,263,4.0,6.0,86,0.00,,---,0.00,VWS V14.01,2013-06-09 11:46:00,
2013-06-09 07:47:00,60.8,56.6,30.08,WSW,252,3.0,6.0,86,0.00,,---,0.00,VWS V14.01,2013-06-09 11:47:00,
2013-06-09 07:48:00,60.8,56.6,30.08,WSW,240,2.0,6.0,86,0.00,,---,0.00,VWS V14.01,2013-06-09 11:48:00,
2013-06-09 07:49:00,60.8,56.6,30.08,WNW,293,5.0,6.0,86,0.00,,---,0.00,VWS V14.01,2013-06-09 11:49:00,
2013-06-09 07:52:00,60.9,56.4,30.08,West,269,2.0,6.0,85,0.00,,---,0.00,VWS V14.01,2013-06-09 11:52:00,
2013-06-09 07:53:00,60.9,56.4,30.08,West,277,2.0,6.0,85,0.00,,---,0.00,VWS V14.01,2013-06-09 11:53:00,
2013-06-09 07:54:00,61.0,56.5,30.08,WSW,242,5.0,7.0,85,0.00,,---,0.00,VWS V14.01,2013-06-09 11:54:00,
2013-06-09 07:57:00,61.2,56.7,30.09,West,269,1.0,7.0,85,0.00,,---,0.00,VWS V14.01,2013-06-09 11:57:00,
2013-06-09 07:58:00,61.3,56.8,30.09,West,264,1.0,7.0,85,0.00,,---,0.00,VWS V14.01,2013-06-09 11:58:00,
2013-06-09 07:59:00,61.4,56.5,30.09,West,273,1.0,4.0,84,0.00,,---,0.00,VWS V14.01,2013-06-09 11:59:00,
2013-06-09 08:00:00,61.4,56.5,30.09,West,273,1.0,4.0,84,0.00,,---,0.00,VWS V14.01,2013-06-09 12:00:00,
2013-06-09 08:03:00,61.7,56.8,30.09,WNW,285,5.0,7.0,84,0.00,,---,0.00,VWS V14.01,2013-06-09 12:03:00,
2013-06-09 08:04:00,61.7,56.8,30.09,WNW,285,5.0,7.0,84,0.00,,---,0.00,VWS V14.01,2013-06-09 12:04:00,
2013-06-09 08:05:00,61.8,56.9,30.09,NW,323,6.0,7.0,84,0.00,,---,0.00,VWS V14.01,2013-06-09 12:05:00,
2013-06-09 08:06:00,61.8,56.6,30.09,NNW,331,2.0,7.0,83,0.00,,---,0.00,VWS V14.01,2013-06-09 12:06:00,
2013-06-09 08:09:00,62.0,56.8,30.09,WSW,255,2.0,7.0,83,0.00,,---,0.00,VWS V14.01,2013-06-09 12:09:00,
2013-06-09 08:10:00,62.1,56.9,30.09,WSW,237,5.0,7.0,83,0.00,,---,0.00,VWS V14.01,2013-06-09 12:10:00,
2013-06-09 08:11:00,62.1,56.9,30.09,WSW,252,6.0,7.0,83,0.00,,---,0.00,VWS V14.01,2013-06-09 12:11:00,
2013-06-09 08:14:00,62.3,56.7,30.09,WSW,238,7.0,8.0,82,0.00,,---,0.00,VWS V14.01,2013-06-09 12:14:00,
2013-06-09 08:15:00,62.3,56.7,30.09,WSW,238,6.0,9.0,82,0.00,,---,0.00,VWS V14.01,2013-06-09 12:15:00,
2013-06-09 08:16:00,62.3,56.7,30.09,West,261,4.0,9.0,82,0.00,,---,0.00,VWS V14.01,2013-06-09 12:16:00,
2013-06-09 08:17:00,62.4,56.8,30.09,West,277,4.0,9.0,82,0.00,,---,0.00,VWS V14.01,2013-06-09 12:17:00,
2013-06-09 08:19:00,62.5,56.6,30.09,West,261,5.0,9.0,81,0.00,,---,0.00,VWS V14.01,2013-06-09 12:19:00,
2013-06-09 08:20:00,62.5,56.6,30.09,West,271,6.0,9.0,81,0.00,,---,0.00,VWS V14.01,2013-06-09 12:20:00,
2013-06-09 08:22:00,62.6,56.7,30.09,NW,311,1.0,9.0,81,0.00,,---,0.00,VWS V14.01,2013-06-09 12:22:00,
2013-06-09 08:24:00,62.6,56.7,30.09,West,274,1.0,9.0,81,0.00,,---,0.00,VWS V14.01,2013-06-09 12:24:00,
2013-06-09 08:25:00,62.7,56.8,30.09,WNW,293,3.0,9.0,81,0.00,,---,0.00,VWS V14.01,2013-06-09 12:25:00,
2013-06-09 08:26:00,62.7,56.8,30.09,WNW,295,6.0,9.0,81,0.00,,---,0.00,VWS V14.01,2013-06-09 12:26:00,
2013-06-09 08:28:00,62.8,56.9,30.09,WNW,285,5.0,9.0,81,0.00,,---,0.00,VWS V14.01,2013-06-09 12:28:00,
2013-06-09 08:30:00,62.9,57.0,30.09,WNW,290,3.0,4.0,81,0.00,,---,0.00,VWS V14.01,2013-06-09 12:30:00,
2013-06-09 08:31:00,63.0,57.1,30.09,WSW,250,3.0,5.0,81,0.00,,---,0.00,VWS V14.01,2013-06-09 12:31:00,
2013-06-09 08:32:00,63.0,57.1,30.09,West,264,2.0,5.0,81,0.00,,---,0.00,VWS V14.01,2013-06-09 12:32:00,
2013-06-09 08:33:00,63.2,57.3,30.09,West,278,5.0,7.0,81,0.00,,---,0.00,VWS V14.01,2013-06-09 12:33:00,
2013-06-09 08:36:00,63.4,57.1,30.09,WNW,285,5.0,8.0,80,0.00,,---,0.00,VWS V14.01,2013-06-09 12:36:00,
2013-06-09 08:37:00,63.5,57.2,30.09,WSW,239,5.0,8.0,80,0.00,,---,0.00,VWS V14.01,2013-06-09 12:37:00,
2013-06-09 08:39:00,63.5,57.2,30.09,WSW,241,5.0,11.0,80,0.00,,---,0.00,VWS V14.01,2013-06-09 12:39:00,
2013-06-09 08:41:00,63.5,57.2,30.09,SW,236,4.0,11.0,80,0.00,,---,0.00,VWS V14.01,2013-06-09 12:41:00,
2013-06-09 08:42:00,63.7,57.4,30.10,NW,318,6.0,11.0,80,0.00,,---,0.00,VWS V14.01,2013-06-09 12:42:00,
2013-06-09 08:43:00,63.7,57.4,30.10,WNW,302,4.0,11.0,80,0.00,,---,0.00,VWS V14.01,2013-06-09 12:43:00,
2013-06-09 08:44:00,63.8,57.5,30.10,WNW,290,4.0,11.0,80,0.00,,---,0.00,VWS V14.01,2013-06-09 12:44:00,
2013-06-09 08:46:00,64.0,57.7,30.10,SW,219,3.0,11.0,80,0.00,,---,0.00,VWS V14.01,2013-06-09 12:46:00,
2013-06-09 08:47:00,64.1,57.8,30.10,SW,231,0.0,11.0,80,0.00,,---,0.00,VWS V14.01,2013-06-09 12:47:00,
2013-06-09 08:48:00,64.2,57.9,30.10,NNW,337,5.0,11.0,80,0.00,,---,0.00,VWS V14.01,2013-06-09 12:48:00,
2013-06-09 08:49:00,64.3,58.0,30.10,ESE,122,5.0,11.0,80,0.00,,---,0.00,VWS V14.01,2013-06-09 12:49:00,
2013-06-09 08:52:00,64.7,58.0,30.10,West,279,4.0,11.0,79,0.00,,---,0.00,VWS V14.01,2013-06-09 12:52:00,
2013-06-09 08:53:00,64.6,57.6,30.10,West,277,4.0,11.0,78,0.00,,---,0.00,VWS V14.01,2013-06-09 12:53:00,
2013-06-09 08:54:00,64.6,57.6,30.10,West,261,7.0,11.0,78,0.00,,---,0.00,VWS V14.01,2013-06-09 12:54:00,
2013-06-09 08:55:00,64.6,58.0,30.10,West,266,12.0,13.0,79,0.00,,---,0.00,VWS V14.01,2013-06-09 12:55:00,
2013-06-09 08:57:00,64.7,57.7,30.10,WNW,283,5.0,13.0,78,0.00,,---,0.00,VWS V14.01,2013-06-09 12:57:00,
2013-06-09 08:58:00,64.8,57.8,30.10,West,267,9.0,13.0,78,0.00,,---,0.00,VWS V14.01,2013-06-09 12:58:00,
2013-06-09 08:59:00,64.7,57.7,30.09,NW,304,7.0,11.0,78,0.00,,---,0.00,VWS V14.01,2013-06-09 12:59:00,
2013-06-09 09:01:00,64.7,57.7,30.09,West,264,2.0,11.0,78,0.00,,---,0.00,VWS V14.01,2013-06-09 13:01:00,
2013-06-09 09:03:00,64.7,57.7,30.09,West,260,6.0,11.0,78,0.00,,---,0.00,VWS V14.01,2013-06-09 13:03:00,
2013-06-09 09:04:00,64.7,57.7,30.09,SW,224,6.0,11.0,78,0.00,,---,0.00,VWS V14.01,2013-06-09 13:04:00,
2013-06-09 09:06:00,64.8,58.1,30.09,West,269,1.0,11.0,79,0.00,,---,0.00,VWS V14.01,2013-06-09 13:06:00,
2013-06-09 09:07:00,64.9,58.2,30.09,WSW,257,4.0,11.0,79,0.00,,---,0.00,VWS V14.01,2013-06-09 13:07:00,
2013-06-09 09:08:00,65.1,58.1,30.09,WNW,290,1.0,11.0,78,0.00,,---,0.00,VWS V14.01,2013-06-09 13:08:00,
2013-06-09 09:12:00,65.2,58.2,30.09,WNW,283,6.0,11.0,78,0.00,,---,0.00,VWS V14.01,2013-06-09 13:12:00,
2013-06-09 09:14:00,65.1,58.1,30.09,West,269,5.0,11.0,78,0.00,,---,0.00,VWS V14.01,2013-06-09 13:14:00,
2013-06-09 09:17:00,65.3,58.3,30.09,West,281,5.0,11.0,78,0.00,,---,0.00,VWS V14.01,2013-06-09 13:17:00,
2013-06-09 09:18:00,65.3,58.3,30.09,SW,235,8.0,11.0,78,0.00,,---,0.00,VWS V14.01,2013-06-09 13:18:00,
2013-06-09 09:19:00,65.2,58.2,30.09,SW,225,1.0,11.0,78,0.00,,---,0.00,VWS V14.01,2013-06-09 13:19:00,
2013-06-09 09:21:00,65.3,58.3,30.09,WSW,255,4.0,11.0,78,0.00,,---,0.00,VWS V14.01,2013-06-09 13:21:00,
2013-06-09 09:23:00,65.5,58.5,30.10,WSW,244,5.0,11.0,78,0.00,,---,0.00,VWS V14.01,2013-06-09 13:23:00,
2013-06-09 09:24:00,65.6,58.6,30.09,WSW,256,2.0,11.0,78,0.00,,---,0.00,VWS V14.01,2013-06-09 13:24:00,
2013-06-09 09:25:00,65.7,58.3,30.10,WSW,241,2.0,11.0,77,0.00,,---,0.00,VWS V14.01,2013-06-09 13:25:00,
2013-06-09 09:26:00,65.8,58.0,30.09,WSW,252,7.0,12.0,76,0.00,,---,0.00,VWS V14.01,2013-06-09 13:26:00,
2013-06-09 09:28:00,65.8,58.4,30.10,NNE,18,3.0,12.0,77,0.00,,---,0.00,VWS V14.01,2013-06-09 13:28:00,
2013-06-09 09:29:00,65.8,58.4,30.09,WNW,300,1.0,4.0,77,0.00,,---,0.00,VWS V14.01,2013-06-09 13:29:00,
2013-06-09 09:30:00,65.9,58.1,30.09,West,260,7.0,11.0,76,0.00,,---,0.00,VWS V14.01,2013-06-09 13:30:00,
2013-06-09 09:32:00,65.9,58.1,30.09,WSW,245,8.0,11.0,76,0.00,,---,0.00,VWS V14.01,2013-06-09 13:32:00,
2013-06-09 09:33:00,65.7,57.9,30.09,WSW,252,2.0,11.0,76,0.00,,---,0.00,VWS V14.01,2013-06-09 13:33:00,
2013-06-09 09:35:00,65.6,57.8,30.09,NNW,333,1.0,11.0,76,0.00,,---,0.00,VWS V14.01,2013-06-09 13:35:00,
2013-06-09 09:37:00,65.7,58.3,30.09,WNW,298,7.0,11.0,77,0.00,,---,0.00,VWS V14.01,2013-06-09 13:37:00,
2013-06-09 09:40:00,66.0,58.2,30.09,WSW,239,3.0,11.0,76,0.00,,---,0.00,VWS V14.01,2013-06-09 13:40:00,
2013-06-09 09:41:00,66.1,58.3,30.09,WSW,243,2.0,11.0,76,0.00,,---,0.00,VWS V14.01,2013-06-09 13:41:00,
2013-06-09 09:42:00,66.2,58.0,30.09,SSW,205,5.0,11.0,75,0.00,,---,0.00,VWS V14.01,2013-06-09 13:42:00,
2013-06-09 09:44:00,66.3,58.2,30.09,WNW,290,3.0,11.0,75,0.00,,---,0.00,VWS V14.01,2013-06-09 13:44:00,
2013-06-09 09:46:00,66.7,58.5,30.09,WSW,252,2.0,11.0,75,0.00,,---,0.00,VWS V14.01,2013-06-09 13:46:00,
2013-06-09 09:47:00,66.7,58.5,30.09,WSW,245,3.0,11.0,75,0.00,,---,0.00,VWS V14.01,2013-06-09 13:47:00,
2013-06-09 09:49:00,67.1,58.5,30.09,WSW,239,3.0,11.0,74,0.00,,---,0.00,VWS V14.01,2013-06-09 13:49:00,
2013-06-09 09:51:00,67.3,58.4,30.09,NNW,336,2.0,11.0,73,0.00,,---,0.00,VWS V14.01,2013-06-09 13:51:00,
2013-06-09 09:52:00,67.4,58.5,30.09,WNW,295,4.0,11.0,73,0.00,,---,0.00,VWS V14.01,2013-06-09 13:52:00,
2013-06-09 09:53:00,67.6,58.7,30.09,WSW,240,1.0,11.0,73,0.00,,---,0.00,VWS V14.01,2013-06-09 13:53:00,
2013-06-09 09:54:00,67.6,58.3,30.09,West,260,3.0,11.0,72,0.00,,---,0.00,VWS V14.01,2013-06-09 13:54:00,
2013-06-09 09:57:00,67.7,58.0,30.09,West,267,3.0,11.0,71,0.00,,---,0.00,VWS V14.01,2013-06-09 13:57:00,
2013-06-09 09:58:00,67.7,58.4,30.09,ENE,70,2.0,11.0,72,0.00,,---,0.00,VWS V14.01,2013-06-09 13:58:00,
2013-06-09 09:59:00,67.8,58.5,30.09,WNW,289,4.0,4.0,72,0.00,,---,0.00,VWS V14.01,2013-06-09 13:59:00,
2013-06-09 10:00:00,67.8,58.5,30.09,West,274,5.0,6.0,72,0.00,,---,0.00,VWS V14.01,2013-06-09 14:00:00,
2013-06-09 10:02:00,68.0,58.3,30.09,WNW,283,2.0,6.0,71,0.00,,---,0.00,VWS V14.01,2013-06-09 14:02:00,
2013-06-09 10:04:00,68.0,58.3,30.09,NE,37,2.0,8.0,71,0.00,,---,0.00,VWS V14.01,2013-06-09 14:04:00,
2013-06-09 10:05:00,68.0,57.9,30.09,NW,304,3.0,8.0,70,0.00,,---,0.00,VWS V14.01,2013-06-09 14:05:00,
2013-06-09 10:06:00,68.1,58.0,30.09,WSW,244,7.0,9.0,70,0.00,,---,0.00,VWS V14.01,2013-06-09 14:06:00,
2013-06-09 10:07:00,68.0,57.9,30.09,North,1,3.0,9.0,70,0.00,,---,0.00,VWS V14.01,2013-06-09 14:07:00,
2013-06-09 10:09:00,68.0,57.9,30.09,SW,226,2.0,9.0,70,0.00,,---,0.00,VWS V14.01,2013-06-09 14:09:00,
2013-06-09 10:10:00,68.1,58.0,30.09,WSW,240,5.0,9.0,70,0.00,,---,0.00,VWS V14.01,2013-06-09 14:10:00,
2013-06-09 10:11:00,68.2,58.0,30.10,WNW,302,0.0,9.0,70,0.00,,---,0.00,VWS V14.01,2013-06-09 14:11:00,
2013-06-09 10:12:00,68.5,58.3,30.10,NW,314,5.0,9.0,70,0.00,,---,0.00,VWS V14.01,2013-06-09 14:12:00,
2013-06-09 10:14:00,68.7,57.7,30.09,NNW,339,2.0,9.0,68,0.00,,---,0.00,VWS V14.01,2013-06-09 14:14:00,
2013-06-09 10:15:00,68.8,57.8,30.09,SW,235,2.0,9.0,68,0.00,,---,0.00,VWS V14.01,2013-06-09 14:15:00,
2013-06-09 10:17:00,68.6,57.2,30.09,West,272,8.0,9.0,67,0.00,,---,0.00,VWS V14.01,2013-06-09 14:17:00,
2013-06-09 10:18:00,68.6,57.6,30.09,WNW,289,7.0,9.0,68,0.00,,---,0.00,VWS V14.01,2013-06-09 14:18:00,
2013-06-09 10:19:00,68.5,57.5,30.09,North,8,4.0,9.0,68,0.00,,---,0.00,VWS V14.01,2013-06-09 14:19:00,
2013-06-09 10:20:00,68.4,57.8,30.09,WSW,240,2.0,9.0,69,0.00,,---,0.00,VWS V14.01,2013-06-09 14:20:00,
2013-06-09 10:23:00,68.7,57.7,30.09,SW,221,5.0,9.0,68,0.00,,---,0.00,VWS V14.01,2013-06-09 14:23:00,
2013-06-09 10:24:00,68.8,57.4,30.09,NW,313,6.0,11.0,67,0.00,,---,0.00,VWS V14.01,2013-06-09 14:24:00,
2013-06-09 10:25:00,68.7,57.3,30.09,WNW,290,3.0,11.0,67,0.00,,---,0.00,VWS V14.01,2013-06-09 14:25:00,
2013-06-09 10:28:00,68.3,57.3,30.09,West,260,7.0,11.0,68,0.00,,---,0.00,VWS V14.01,2013-06-09 14:28:00,
2013-06-09 10:29:00,68.2,57.2,30.09,WNW,300,4.0,9.0,68,0.00,,---,0.00,VWS V14.01,2013-06-09 14:29:00,
2013-06-09 10:30:00,68.3,57.3,30.09,West,274,8.0,9.0,68,0.00,,---,0.00,VWS V14.01,2013-06-09 14:30:00,
2013-06-09 10:31:00,68.3,57.3,30.09,SSW,208,3.0,9.0,68,0.00,,---,0.00,VWS V14.01,2013-06-09 14:31:00,
2013-06-09 10:33:00,68.5,57.5,30.09,WSW,239,7.0,9.0,68,0.00,,---,0.00,VWS V14.01,2013-06-09 14:33:00,
2013-06-09 10:35:00,68.6,57.6,30.09,SSW,208,4.0,9.0,68,0.00,,---,0.00,VWS V14.01,2013-06-09 14:35:00,
2013-06-09 10:37:00,68.8,57.4,30.09,West,264,4.0,9.0,67,0.00,,---,0.00,VWS V14.01,2013-06-09 14:37:00,
2013-06-09 10:38:00,68.8,57.8,30.09,SW,221,8.0,9.0,68,0.00,,---,0.00,VWS V14.01,2013-06-09 14:38:00,
2013-06-09 10:39:00,68.9,57.5,30.09,WNW,290,6.0,9.0,67,0.00,,---,0.00,VWS V14.01,2013-06-09 14:39:00,
2013-06-09 10:42:00,68.9,57.1,30.09,SW,224,6.0,12.0,66,0.00,,---,0.00,VWS V14.01,2013-06-09 14:42:00,
2013-06-09 10:43:00,68.8,57.0,30.09,WSW,240,8.0,12.0,66,0.00,,---,0.00,VWS V14.01,2013-06-09 14:43:00,
2013-06-09 10:44:00,68.8,57.0,30.09,North,353,5.0,12.0,66,0.00,,---,0.00,VWS V14.01,2013-06-09 14:44:00,
2013-06-09 10:45:00,68.8,57.0,30.09,West,278,3.0,12.0,66,0.00,,---,0.00,VWS V14.01,2013-06-09 14:45:00,
2013-06-09 10:48:00,68.8,56.6,30.08,SW,232,11.0,12.0,65,0.00,,---,0.00,VWS V14.01,2013-06-09 14:48:00,
2013-06-09 10:49:00,68.9,56.7,30.08,WSW,248,9.0,12.0,65,0.00,,---,0.00,VWS V14.01,2013-06-09 14:49:00,
2013-06-09 10:50:00,68.9,56.7,30.08,West,259,2.0,12.0,65,0.00,,---,0.00,VWS V14.01,2013-06-09 14:50:00,
2013-06-09 10:54:00,69.0,56.8,30.08,SSE,166,4.0,12.0,65,0.00,,---,0.00,VWS V14.01,2013-06-09 14:54:00,
2013-06-09 10:55:00,69.2,57.4,30.08,SSE,152,7.0,12.0,66,0.00,,---,0.00,VWS V14.01,2013-06-09 14:55:00,
2013-06-09 10:56:00,69.2,57.0,30.08,South,169,4.0,12.0,65,0.00,,---,0.00,VWS V14.01,2013-06-09 14:56:00,
2013-06-09 11:00:00,69.1,56.4,30.08,North,349,1.0,7.0,64,0.00,,---,0.00,VWS V14.01,2013-06-09 15:00:00,
2013-06-09 11:01:00,69.1,56.4,30.08,SW,229,8.0,9.0,64,0.00,,---,0.00,VWS V14.01,2013-06-09 15:01:00,
2013-06-09 11:02:00,69.0,56.3,30.08,West,278,5.0,9.0,64,0.00,,---,0.00,VWS V14.01,2013-06-09 15:02:00,
2013-06-09 11:05:00,68.8,57.0,30.08,WSW,257,8.0,11.0,66,0.00,,---,0.00,VWS V14.01,2013-06-09 15:05:00,
2013-06-09 11:06:00,68.7,56.0,30.08,WSW,257,8.0,11.0,64,0.00,,---,0.00,VWS V14.01,2013-06-09 15:06:00,
2013-06-09 11:08:00,68.6,56.4,30.08,SW,224,5.0,11.0,65,0.00,,---,0.00,VWS V14.01,2013-06-09 15:08:00,
2013-06-09 11:10:00,68.6,56.8,30.08,SW,224,2.0,11.0,66,0.00,,---,0.00,VWS V14.01,2013-06-09 15:10:00,
2013-06-09 11:12:00,68.6,56.8,30.08,SW,226,2.0,11.0,66,0.00,,---,0.00,VWS V14.01,2013-06-09 15:12:00,
2013-06-09 11:13:00,68.8,57.0,30.08,East,93,0.0,11.0,66,0.00,,---,0.00,VWS V14.01,2013-06-09 15:13:00,
2013-06-09 11:14:00,68.9,57.1,30.08,WSW,257,1.0,11.0,66,0.00,,---,0.00,VWS V14.01,2013-06-09 15:14:00,
2013-06-09 11:17:00,69.9,57.6,30.08,NNW,345,2.0,11.0,65,0.00,,---,0.00,VWS V14.01,2013-06-09 15:17:00,
2013-06-09 11:18:00,70.3,57.1,30.08,NW,321,4.0,11.0,63,0.00,,---,0.00,VWS V14.01,2013-06-09 15:18:00,
2013-06-09 11:19:00,70.3,57.1,30.08,NNW,335,2.0,11.0,63,0.00,,---,0.00,VWS V14.01,2013-06-09 15:19:00,
2013-06-09 11:24:00,70.8,56.7,30.08,SSW,210,5.0,11.0,61,0.00,,---,0.00,VWS V14.01,2013-06-09 15:24:00,
2013-06-09 11:25:00,70.5,57.3,30.08,WNW,298,3.0,11.0,63,0.00,,---,0.00,VWS V14.01,2013-06-09 15:25:00,
2013-06-09 11:29:00,71.1,56.5,30.08,WSW,238,7.0,8.0,60,0.00,,---,0.00,VWS V14.01,2013-06-09 15:29:00,
2013-06-09 11:30:00,71.0,56.9,30.08,SW,226,7.0,8.0,61,0.00,,---,0.00,VWS V14.01,2013-06-09 15:30:00,
2013-06-09 11:32:00,70.9,57.2,30.08,WSW,244,3.0,8.0,62,0.00,,---,0.00,VWS V14.01,2013-06-09 15:32:00,
2013-06-09 11:34:00,71.0,57.3,30.08,WSW,240,5.0,8.0,62,0.00,,---,0.00,VWS V14.01,2013-06-09 15:34:00,
2013-06-09 11:35:00,71.0,57.3,30.08,WSW,239,7.0,8.0,62,0.00,,---,0.00,VWS V14.01,2013-06-09 15:35:00,
2013-06-09 11:36:00,71.0,57.3,30.08,WSW,244,5.0,8.0,62,0.00,,---,0.00,VWS V14.01,2013-06-09 15:36:00,
2013-06-09 11:37:00,71.0,57.3,30.08,WSW,245,6.0,8.0,62,0.00,,---,0.00,VWS V14.01,2013-06-09 15:37:00,
2013-06-09 11:38:00,71.0,57.3,30.08,West,274,8.0,10.0,62,0.00,,---,0.00,VWS V14.01,2013-06-09 15:38:00,
2013-06-09 11:39:00,70.9,57.2,30.08,SSW,203,0.0,10.0,62,0.00,,---,0.00,VWS V14.01,2013-06-09 15:39:00,
2013-06-09 11:41:00,71.0,57.3,30.08,NW,311,1.0,10.0,62,0.00,,---,0.00,VWS V14.01,2013-06-09 15:41:00,
2013-06-09 11:42:00,71.2,57.5,30.08,SW,232,1.0,10.0,62,0.00,,---,0.00,VWS V14.01,2013-06-09 15:42:00,
2013-06-09 11:44:00,71.6,57.9,30.08,NE,53,0.0,10.0,62,0.00,,---,0.00,VWS V14.01,2013-06-09 15:44:00,
2013-06-09 11:45:00,72.0,58.3,30.08,WSW,257,1.0,10.0,62,0.00,,---,0.00,VWS V14.01,2013-06-09 15:45:00,
2013-06-09 11:47:00,72.4,57.8,30.08,West,276,2.0,10.0,60,0.00,,---,0.00,VWS V14.01,2013-06-09 15:47:00,
2013-06-09 11:48:00,72.4,57.8,30.08,SW,231,1.0,10.0,60,0.00,,---,0.00,VWS V14.01,2013-06-09 15:48:00,
2013-06-09 11:49:00,72.5,57.4,30.08,WSW,253,0.0,10.0,59,0.00,,---,0.00,VWS V14.01,2013-06-09 15:49:00,
2013-06-09 11:52:00,72.1,57.0,30.08,WNW,287,3.0,10.0,59,0.00,,---,0.00,VWS V14.01,2013-06-09 15:52:00,
2013-06-09 11:53:00,72.1,57.0,30.08,WSW,257,8.0,10.0,59,0.00,,---,0.00,VWS V14.01,2013-06-09 15:53:00,
2013-06-09 11:54:00,72.1,56.5,30.08,WSW,240,7.0,11.0,58,0.00,,---,0.00,VWS V14.01,2013-06-09 15:54:00,
2013-06-09 11:55:00,71.9,56.3,30.08,WSW,257,5.0,12.0,58,0.00,,---,0.00,VWS V14.01,2013-06-09 15:55:00,
2013-06-09 11:58:00,71.8,56.7,30.08,West,280,2.0,12.0,59,0.00,,---,0.00,VWS V14.01,2013-06-09 15:58:00,
2013-06-09 12:00:00,71.7,56.6,30.08,WSW,254,4.0,8.0,59,0.00,,---,0.00,VWS V14.01,2013-06-09 16:00:00,
2013-06-09 12:01:00,71.7,56.6,30.08,West,264,8.0,10.0,59,0.00,,---,0.00,VWS V14.01,2013-06-09 16:01:00,
2013-06-09 12:03:00,71.4,56.3,30.08,West,269,4.0,10.0,59,0.00,,---,0.00,VWS V14.01,2013-06-09 16:03:00,
2013-06-09 12:04:00,71.2,56.2,30.08,WSW,238,6.0,10.0,59,0.00,,---,0.00,VWS V14.01,2013-06-09 16:04:00,
2013-06-09 12:05:00,71.2,56.2,30.08,SW,225,5.0,10.0,59,0.00,,---,0.00,VWS V14.01,2013-06-09 16:05:00,
2013-06-09 12:07:00,71.1,56.5,30.08,WNW,302,8.0,10.0,60,0.00,,---,0.00,VWS V14.01,2013-06-09 16:07:00,
2013-06-09 12:09:00,71.1,56.5,30.08,WSW,249,4.0,10.0,60,0.00,,---,0.00,VWS V14.01,2013-06-09 16:09:00,
2013-06-09 12:10:00,71.1,56.1,30.08,West,259,3.0,10.0,59,0.00,,---,0.00,VWS V14.01,2013-06-09 16:10:00,
2013-06-09 12:12:00,71.0,56.0,30.08,NW,323,1.0,10.0,59,0.00,,---,0.00,VWS V14.01,2013-06-09 16:12:00,
2013-06-09 12:13:00,70.9,55.9,30.08,West,281,5.0,10.0,59,0.00,,---,0.00,VWS V14.01,2013-06-09 16:13:00,
2013-06-09 12:14:00,70.9,55.9,30.08,SW,228,4.0,10.0,59,0.00,,---,0.00,VWS V14.01,2013-06-09 16:14:00,
2013-06-09 12:16:00,71.0,56.4,30.08,West,276,2.0,10.0,60,0.00,,---,0.00,VWS V14.01,2013-06-09 16:16:00,
2013-06-09 12:17:00,71.2,57.5,30.08,West,272,3.0,10.0,62,0.00,,---,0.00,VWS V14.01,2013-06-09 16:17:00,
2013-06-09 12:18:00,71.3,56.7,30.08,SW,235,5.0,10.0,60,0.00,,---,0.00,VWS V14.01,2013-06-09 16:18:00,
2013-06-09 12:19:00,71.3,56.2,30.08,WSW,245,8.0,12.0,59,0.00,,---,0.00,VWS V14.01,2013-06-09 16:19:00,
2013-06-09 12:20:00,71.3,56.2,30.08,SW,231,6.0,12.0,59,0.00,,---,0.00,VWS V14.01,2013-06-09 16:20:00,
2013-06-09 12:21:00,71.3,56.2,30.08,WSW,242,8.0,12.0,59,0.00,,---,0.00,VWS V14.01,2013-06-09 16:21:00,
2013-06-09 12:22:00,71.4,56.3,30.08,ENE,77,2.0,12.0,59,0.00,,---,0.00,VWS V14.01,2013-06-09 16:22:00,
2013-06-09 12:25:00,71.8,56.7,30.07,WSW,245,3.0,12.0,59,0.00,,---,0.00,VWS V14.01,2013-06-09 16:25:00,
2013-06-09 12:26:00,72.0,56.9,30.07,SW,231,9.0,12.0,59,0.00,,---,0.00,VWS V14.01,2013-06-09 16:26:00,
2013-06-09 12:28:00,72.0,56.4,30.07,SW,235,7.0,12.0,58,0.00,,---,0.00,VWS V14.01,2013-06-09 16:28:00,
2013-06-09 12:30:00,71.7,56.2,30.07,SW,219,1.0,7.0,58,0.00,,---,0.00,VWS V14.01,2013-06-09 16:30:00,
2013-06-09 12:31:00,71.8,56.2,30.07,South,176,2.0,7.0,58,0.00,,---,0.00,VWS V14.01,2013-06-09 16:31:00,
2013-06-09 12:32:00,71.8,56.7,30.07,SE,143,3.0,7.0,59,0.00,,---,0.00,VWS V14.01,2013-06-09 16:32:00,
2013-06-09 12:34:00,72.2,56.6,30.07,West,280,5.0,8.0,58,0.00,,---,0.00,VWS V14.01,2013-06-09 16:34:00,
2013-06-09 12:35:00,72.5,56.9,30.07,WNW,283,4.0,8.0,58,0.00,,---,0.00,VWS V14.01,2013-06-09 16:35:00,
2013-06-09 12:37:00,72.7,57.1,30.07,WSW,240,1.0,8.0,58,0.00,,---,0.00,VWS V14.01,2013-06-09 16:37:00,
2013-06-09 12:40:00,72.9,56.3,30.07,West,276,6.0,8.0,56,0.00,,---,0.00,VWS V14.01,2013-06-09 16:40:00,
2013-06-09 12:42:00,72.8,56.2,30.07,West,260,4.0,8.0,56,0.00,,---,0.00,VWS V14.01,2013-06-09 16:42:00,
2013-06-09 12:43:00,72.9,55.8,30.07,SW,236,5.0,8.0,55,0.00,,---,0.00,VWS V14.01,2013-06-09 16:43:00,
2013-06-09 12:46:00,72.9,56.3,30.07,West,264,6.0,8.0,56,0.00,,---,0.00,VWS V14.01,2013-06-09 16:46:00,
2013-06-09 12:47:00,72.9,56.3,30.07,West,281,6.0,8.0,56,0.00,,---,0.00,VWS V14.01,2013-06-09 16:47:00,
2013-06-09 12:48:00,73.0,56.4,30.07,WSW,244,4.0,8.0,56,0.00,,---,0.00,VWS V14.01,2013-06-09 16:48:00,
2013-06-09 12:49:00,73.1,56.0,30.07,SW,236,2.0,9.0,55,0.00,,---,0.00,VWS V14.01,2013-06-09 16:49:00,
2013-06-09 12:51:00,73.0,55.9,30.07,SW,235,4.0,11.0,55,0.00,,---,0.00,VWS V14.01,2013-06-09 16:51:00,
2013-06-09 12:52:00,72.8,55.2,30.07,SW,236,4.0,11.0,54,0.00,,---,0.00,VWS V14.01,2013-06-09 16:52:00,
2013-06-09 12:53:00,72.7,55.6,30.07,WNW,294,6.0,11.0,55,0.00,,---,0.00,VWS V14.01,2013-06-09 16:53:00,
2013-06-09 12:54:00,72.5,55.4,30.07,WSW,250,5.0,11.0,55,0.00,,---,0.00,VWS V14.01,2013-06-09 16:54:00,
2013-06-09 12:55:00,72.5,55.9,30.07,SW,236,3.0,11.0,56,0.00,,---,0.00,VWS V14.01,2013-06-09 16:55:00,
2013-06-09 12:56:00,72.5,55.9,30.07,West,280,7.0,11.0,56,0.00,,---,0.00,VWS V14.01,2013-06-09 16:56:00,
2013-06-09 12:59:00,72.6,56.0,30.06,West,276,2.0,5.0,56,0.00,,---,0.00,VWS V14.01,2013-06-09 16:59:00,
2013-06-09 13:00:00,72.6,55.5,30.06,South,172,7.0,10.0,55,0.00,,---,0.00,VWS V14.01,2013-06-09 17:00:00,
2013-06-09 13:01:00,72.5,55.9,30.06,West,270,7.0,10.0,56,0.00,,---,0.00,VWS V14.01,2013-06-09 17:01:00,
2013-06-09 13:04:00,72.2,56.1,30.06,West,279,7.0,10.0,57,0.00,,---,0.00,VWS V14.01,2013-06-09 17:04:00,
2013-06-09 13:05:00,72.0,56.0,30.06,SW,224,2.0,10.0,57,0.00,,---,0.00,VWS V14.01,2013-06-09 17:05:00,
2013-06-09 13:06:00,72.0,56.0,30.06,West,280,4.0,10.0,57,0.00,,---,0.00,VWS V14.01,2013-06-09 17:06:00,
2013-06-09 13:07:00,72.0,56.4,30.06,SW,230,3.0,10.0,58,0.00,,---,0.00,VWS V14.01,2013-06-09 17:07:00,
2013-06-09 13:10:00,72.1,57.0,30.06,WNW,290,9.0,10.0,59,0.00,,---,0.00,VWS V14.01,2013-06-09 17:10:00,
2013-06-09 13:11:00,72.1,57.0,30.06,WNW,293,5.0,10.0,59,0.00,,---,0.00,VWS V14.01,2013-06-09 17:11:00,
2013-06-09 13:12:00,72.3,56.7,30.07,East,94,2.0,10.0,58,0.00,,---,0.00,VWS V14.01,2013-06-09 17:12:00,
2013-06-09 13:13:00,72.4,56.8,30.06,NW,325,1.0,10.0,58,0.00,,---,0.00,VWS V14.01,2013-06-09 17:13:00,
2013-06-09 13:16:00,73.0,56.4,30.06,WNW,290,7.0,10.0,56,0.00,,---,0.00,VWS V14.01,2013-06-09 17:16:00,
2013-06-09 13:18:00,73.0,56.4,30.06,SSW,195,2.0,10.0,56,0.00,,---,0.00,VWS V14.01,2013-06-09 17:18:00,
2013-06-09 13:20:00,73.1,56.0,30.06,WNW,293,6.0,10.0,55,0.00,,---,0.00,VWS V14.01,2013-06-09 17:20:00,
2013-06-09 13:21:00,73.2,56.1,30.06,WSW,257,11.0,11.0,55,0.00,,---,0.00,VWS V14.01,2013-06-09 17:21:00,
2013-06-09 13:22:00,73.3,56.7,30.06,NNW,345,5.0,11.0,56,0.00,,---,0.00,VWS V14.01,2013-06-09 17:22:00,
2013-06-09 13:23:00,73.4,56.8,30.06,WNW,300,6.0,11.0,56,0.00,,---,0.00,VWS V14.01,2013-06-09 17:23:00,
2013-06-09 13:27:00,73.6,56.0,30.06,SW,236,3.0,11.0,54,0.00,,---,0.00,VWS V14.01,2013-06-09 17:27:00,
2013-06-09 13:28:00,73.6,55.4,30.06,WSW,243,7.0,12.0,53,0.00,,---,0.00,VWS V14.01,2013-06-09 17:28:00,
2013-06-09 13:30:00,73.8,55.6,30.06,WSW,244,9.0,9.0,53,0.00,,---,0.00,VWS V14.01,2013-06-09 17:30:00,
2013-06-09 13:32:00,73.8,55.1,30.06,WNW,285,8.0,16.0,52,0.00,,---,0.00,VWS V14.01,2013-06-09 17:32:00,
2013-06-09 13:33:00,73.8,55.1,30.06,NW,323,4.0,16.0,52,0.00,,---,0.00,VWS V14.01,2013-06-09 17:33:00,
2013-06-09 13:36:00,73.9,55.2,30.06,West,276,5.0,16.0,52,0.00,,---,0.00,VWS V14.01,2013-06-09 17:36:00,
2013-06-09 13:37:00,73.9,54.7,30.06,WSW,250,6.0,16.0,51,0.00,,---,0.00,VWS V14.01,2013-06-09 17:37:00,
2013-06-09 13:38:00,74.0,54.7,30.06,WSW,257,8.0,16.0,51,0.00,,---,0.00,VWS V14.01,2013-06-09 17:38:00,
2013-06-09 13:39:00,74.0,54.7,30.06,NW,323,5.0,16.0,51,0.00,,---,0.00,VWS V14.01,2013-06-09 17:39:00,
2013-06-09 13:40:00,74.0,55.3,30.06,WNW,283,2.0,16.0,52,0.00,,---,0.00,VWS V14.01,2013-06-09 17:40:00,
2013-06-09 13:42:00,74.2,55.5,30.06,NW,316,5.0,16.0,52,0.00,,---,0.00,VWS V14.01,2013-06-09 17:42:00,
2013-06-09 13:44:00,74.2,54.9,30.06,WSW,250,3.0,16.0,51,0.00,,---,0.00,VWS V14.01,2013-06-09 17:44:00,
2013-06-09 13:46:00,74.4,55.1,30.06,WSW,250,10.0,16.0,51,0.00,,---,0.00,VWS V14.01,2013-06-09 17:46:00,
2013-06-09 13:48:00,74.3,55.0,30.06,NW,317,5.0,16.0,51,0.00,,---,0.00,VWS V14.01,2013-06-09 17:48:00,
2013-06-09 13:49:00,74.2,54.9,30.06,SSW,207,3.0,16.0,51,0.00,,---,0.00,VWS V14.01,2013-06-09 17:49:00,
2013-06-09 13:51:00,74.2,54.9,30.06,West,276,9.0,16.0,51,0.00,,---,0.00,VWS V14.01,2013-06-09 17:51:00,
2013-06-09 13:53:00,74.2,54.4,30.06,WSW,242,7.0,16.0,50,0.00,,---,0.00,VWS V14.01,2013-06-09 17:53:00,
2013-06-09 13:54:00,74.1,54.8,30.06,WNW,300,4.0,16.0,51,0.00,,---,0.00,VWS V14.01,2013-06-09 17:54:00,
2013-06-09 13:55:00,74.0,54.7,30.06,West,276,6.0,16.0,51,0.00,,---,0.00,VWS V14.01,2013-06-09 17:55:00,
2013-06-09 13:58:00,73.9,55.2,30.06,WNW,286,4.0,16.0,52,0.00,,---,0.00,VWS V14.01,2013-06-09 17:58:00,
2013-06-09 13:59:00,73.9,54.1,30.06,WSW,245,4.0,6.0,50,0.00,,---,0.00,VWS V14.01,2013-06-09 17:59:00,
2013-06-09 14:00:00,74.0,54.7,30.06,North,358,4.0,6.0,51,0.00,,---,0.00,VWS V14.01,2013-06-09 18:00:00,
2013-06-09 14:01:00,74.1,54.8,30.06,WNW,300,4.0,9.0,51,0.00,,---,0.00,VWS V14.01,2013-06-09 18:01:00,
2013-06-09 14:03:00,74.2,55.5,30.06,SW,235,3.0,9.0,52,0.00,,---,0.00,VWS V14.01,2013-06-09 18:03:00,
2013-06-09 14:05:00,74.4,55.7,30.06,WNW,286,9.0,10.0,52,0.00,,---,0.00,VWS V14.01,2013-06-09 18:05:00,
2013-06-09 14:06:00,74.5,55.7,30.06,WNW,299,5.0,10.0,52,0.00,,---,0.00,VWS V14.01,2013-06-09 18:06:00,
2013-06-09 14:08:00,74.6,55.3,30.06,SE,146,2.0,11.0,51,0.00,,---,0.00,VWS V14.01,2013-06-09 18:08:00,
2013-06-09 14:09:00,74.8,56.0,30.06,WNW,284,3.0,11.0,52,0.00,,---,0.00,VWS V14.01,2013-06-09 18:09:00,
2013-06-09 14:10:00,74.9,55.6,30.06,West,264,6.0,11.0,51,0.00,,---,0.00,VWS V14.01,2013-06-09 18:10:00,
2013-06-09 14:11:00,74.8,54.9,30.06,WNW,302,6.0,12.0,50,0.00,,---,0.00,VWS V14.01,2013-06-09 18:11:00,
2013-06-09 14:14:00,74.5,55.7,30.06,SW,236,12.0,13.0,52,0.00,,---,0.00,VWS V14.01,2013-06-09 18:14:00,
2013-06-09 14:15:00,74.6,55.3,30.06,NNW,330,3.0,13.0,51,0.00,,---,0.00,VWS V14.01,2013-06-09 18:15:00,
2013-06-09 14:17:00,74.4,55.7,30.06,West,271,7.0,16.0,52,0.00,,---,0.00,VWS V14.01,2013-06-09 18:17:00,
2013-06-09 14:19:00,73.9,55.2,30.06,WNW,299,4.0,16.0,52,0.00,,---,0.00,VWS V14.01,2013-06-09 18:19:00,
2013-06-09 14:20:00,73.9,54.7,30.06,West,280,7.0,16.0,51,0.00,,---,0.00,VWS V14.01,2013-06-09 18:20:00,
2013-06-09 14:22:00,73.8,55.6,30.06,WSW,252,7.0,16.0,53,0.00,,---,0.00,VWS V14.01,2013-06-09 18:22:00,
2013-06-09 14:25:00,74.1,55.9,30.06,NNE,28,2.0,16.0,53,0.00,,---,0.00,VWS V14.01,2013-06-09 18:25:00,
2013-06-09 14:27:00,74.3,55.6,30.06,NW,316,4.0,16.0,52,0.00,,---,0.00,VWS V14.01,2013-06-09 18:27:00,
2013-06-09 14:30:00,74.2,55.5,30.06,SW,225,3.0,9.0,52,0.00,,---,0.00,VWS V14.01,2013-06-09 18:30:00,
2013-06-09 14:31:00,74.2,55.5,30.06,West,271,4.0,9.0,52,0.00,,---,0.00,VWS V14.01,2013-06-09 18:31:00,
2013-06-09 14:32:00,74.2,55.5,30.06,SSW,200,2.0,9.0,52,0.00,,---,0.00,VWS V14.01,2013-06-09 18:32:00,
2013-06-09 14:35:00,74.0,54.7,30.06,West,264,9.0,15.0,51,0.00,,---,0.00,VWS V14.01,2013-06-09 18:35:00,
2013-06-09 14:36:00,74.0,54.7,30.06,WSW,257,6.0,15.0,51,0.00,,---,0.00,VWS V14.01,2013-06-09 18:36:00,
2013-06-09 14:37:00,74.0,54.7,30.06,WSW,254,5.0,15.0,51,0.00,,---,0.00,VWS V14.01,2013-06-09 18:37:00,
2013-06-09 14:40:00,74.1,54.8,30.06,West,262,6.0,15.0,51,0.00,,---,0.00,VWS V14.01,2013-06-09 18:40:00,
2013-06-09 14:41:00,74.1,55.4,30.06,West,259,6.0,15.0,52,0.00,,---,0.00,VWS V14.01,2013-06-09 18:41:00,
2013-06-09 14:42:00,74.2,55.5,30.06,WNW,295,2.0,15.0,52,0.00,,---,0.00,VWS V14.01,2013-06-09 18:42:00,
2013-06-09 14:44:00,74.6,54.8,30.07,NE,47,7.0,15.0,50,0.00,,---,0.00,VWS V14.01,2013-06-09 18:44:00,
2013-06-09 14:46:00,74.7,55.4,30.07,NW,305,6.0,15.0,51,0.00,,---,0.00,VWS V14.01,2013-06-09 18:46:00,
2013-06-09 14:47:00,74.6,55.8,30.07,NW,319,2.0,15.0,52,0.00,,---,0.00,VWS V14.01,2013-06-09 18:47:00,
2013-06-09 14:49:00,74.8,56.0,30.06,WSW,248,8.0,15.0,52,0.00,,---,0.00,VWS V14.01,2013-06-09 18:49:00,
2013-06-09 14:50:00,74.8,56.0,30.06,NW,304,1.0,15.0,52,0.00,,---,0.00,VWS V14.01,2013-06-09 18:50:00,
2013-06-09 14:52:00,75.0,56.2,30.07,WSW,244,10.0,15.0,52,0.00,,---,0.00,VWS V14.01,2013-06-09 18:52:00,
2013-06-09 14:54:00,75.0,55.7,30.07,WNW,293,6.0,15.0,51,0.00,,---,0.00,VWS V14.01,2013-06-09 18:54:00,
2013-06-09 14:55:00,74.9,55.6,30.07,South,177,2.0,15.0,51,0.00,,---,0.00,VWS V14.01,2013-06-09 18:55:00,
2013-06-09 14:58:00,74.9,56.1,30.07,West,281,2.0,15.0,52,0.00,,---,0.00,VWS V14.01,2013-06-09 18:58:00,
2013-06-09 14:59:00,75.0,55.7,30.07,West,269,2.0,9.0,51,0.00,,---,0.00,VWS V14.01,2013-06-09 18:59:00,
2013-06-09 15:02:00,75.3,55.9,30.07,WSW,256,3.0,9.0,51,0.00,,---,0.00,VWS V14.01,2013-06-09 19:02:00,
2013-06-09 15:03:00,75.2,55.8,30.07,North,8,7.0,11.0,51,0.00,,---,0.00,VWS V14.01,2013-06-09 19:03:00,
2013-06-09 15:04:00,75.1,55.2,30.07,WNW,302,6.0,11.0,50,0.00,,---,0.00,VWS V14.01,2013-06-09 19:04:00,
2013-06-09 15:05:00,75.1,55.8,30.07,WSW,251,5.0,11.0,51,0.00,,---,0.00,VWS V14.01,2013-06-09 19:05:00,
2013-06-09 15:07:00,74.8,55.5,30.07,NNW,337,4.0,13.0,51,0.00,,---,0.00,VWS V14.01,2013-06-09 19:07:00,
2013-06-09 15:08:00,74.9,56.1,30.07,SSW,212,2.0,13.0,52,0.00,,---,0.00,VWS V14.01,2013-06-09 19:08:00,
2013-06-09 15:09:00,75.0,55.7,30.06,West,261,2.0,13.0,51,0.00,,---,0.00,VWS V14.01,2013-06-09 19:09:00,
2013-06-09 15:12:00,74.8,55.5,30.06,West,266,6.0,13.0,51,0.00,,---,0.00,VWS V14.01,2013-06-09 19:12:00,
2013-06-09 15:13:00,74.6,55.3,30.07,West,271,8.0,13.0,51,0.00,,---,0.00,VWS V14.01,2013-06-09 19:13:00,
2013-06-09 15:14:00,74.5,55.7,30.07,WSW,248,6.0,13.0,52,0.00,,---,0.00,VWS V14.01,2013-06-09 19:14:00,
2013-06-09 15:17:00,74.2,55.5,30.07,NW,313,7.0,14.0,52,0.00,,---,0.00,VWS V14.01,2013-06-09 19:17:00,
2013-06-09 15:18:00,74.1,55.4,30.07,WSW,245,6.0,14.0,52,0.00,,---,0.00,VWS V14.01,2013-06-09 19:18:00,
2013-06-09 15:19:00,74.1,55.4,30.07,SW,218,2.0,14.0,52,0.00,,---,0.00,VWS V14.01,2013-06-09 19:19:00,
2013-06-09 15:22:00,74.2,54.9,30.07,WNW,298,3.0,14.0,51,0.00,,---,0.00,VWS V14.01,2013-06-09 19:22:00,
2013-06-09 15:23:00,74.2,55.5,30.07,West,266,7.0,14.0,52,0.00,,---,0.00,VWS V14.01,2013-06-09 19:23:00,
2013-06-09 15:25:00,74.0,55.3,30.07,West,271,6.0,14.0,52,0.00,,---,0.00,VWS V14.01,2013-06-09 19:25:00,
2013-06-09 15:27:00,73.9,55.2,30.07,West,273,1.0,14.0,52,0.00,,---,0.00,VWS V14.01,2013-06-09 19:27:00,
2013-06-09 15:28:00,73.9,55.7,30.07,ENE,65,1.0,14.0,53,0.00,,---,0.00,VWS V14.01,2013-06-09 19:28:00,
2013-06-09 15:29:00,74.0,56.3,30.07,SE,136,3.0,3.0,54,0.00,,---,0.00,VWS V14.01,2013-06-09 19:29:00,
2013-06-09 15:30:00,74.1,55.9,30.07,WSW,257,2.0,9.0,53,0.00,,---,0.00,VWS V14.01,2013-06-09 19:30:00,
2013-06-09 15:33:00,74.4,55.1,30.06,NW,323,4.0,9.0,51,0.00,,---,0.00,VWS V14.01,2013-06-09 19:33:00,
2013-06-09 15:34:00,74.4,55.7,30.06,WNW,289,6.0,9.0,52,0.00,,---,0.00,VWS V14.01,2013-06-09 19:34:00,
2013-06-09 15:36:00,74.3,55.0,30.06,West,261,5.0,10.0,51,0.00,,---,0.00,VWS V14.01,2013-06-09 19:36:00,
2013-06-09 15:38:00,74.2,54.9,30.07,WSW,242,10.0,13.0,51,0.00,,---,0.00,VWS V14.01,2013-06-09 19:38:00,
2013-06-09 15:39:00,74.2,54.9,30.07,West,262,8.0,13.0,51,0.00,,---,0.00,VWS V14.01,2013-06-09 19:39:00,
2013-06-09 15:40:00,74.1,54.8,30.07,WSW,254,3.0,13.0,51,0.00,,---,0.00,VWS V14.01,2013-06-09 19:40:00,
2013-06-09 15:41:00,74.0,54.7,30.07,NW,311,4.0,13.0,51,0.00,,---,0.00,VWS V14.01,2013-06-09 19:41:00,
2013-06-09 15:42:00,74.0,54.7,30.07,South,186,3.0,13.0,51,0.00,,---,0.00,VWS V14.01,2013-06-09 19:42:00,
2013-06-09 15:43:00,74.1,55.4,30.07,WSW,238,1.0,13.0,52,0.00,,---,0.00,VWS V14.01,2013-06-09 19:43:00,
2013-06-09 15:45:00,74.4,55.1,30.07,WSW,242,8.0,13.0,51,0.00,,---,0.00,VWS V14.01,2013-06-09 19:45:00,
2013-06-09 15:46:00,74.4,55.7,30.07,NW,308,4.0,13.0,52,0.00,,---,0.00,VWS V14.01,2013-06-09 19:46:00,
2013-06-09 15:47:00,74.5,55.2,30.07,WSW,238,3.0,13.0,51,0.00,,---,0.00,VWS V14.01,2013-06-09 19:47:00,
2013-06-09 15:50:00,74.6,54.2,30.07,West,269,7.0,13.0,49,0.00,,---,0.00,VWS V14.01,2013-06-09 19:50:00,
2013-06-09 15:51:00,74.7,54.3,30.07,West,276,3.0,13.0,49,0.00,,---,0.00,VWS V14.01,2013-06-09 19:51:00,
2013-06-09 15:52:00,74.7,54.3,30.07,SSE,153,3.0,13.0,49,0.00,,---,0.00,VWS V14.01,2013-06-09 19:52:00,
2013-06-09 15:53:00,74.8,54.4,30.07,WSW,242,7.0,13.0,49,0.00,,---,0.00,VWS V14.01,2013-06-09 19:53:00,
2013-06-09 15:56:00,74.8,54.9,30.07,WSW,250,2.0,13.0,50,0.00,,---,0.00,VWS V14.01,2013-06-09 19:56:00,
2013-06-09 15:57:00,74.8,54.9,30.07,SW,222,3.0,13.0,50,0.00,,---,0.00,VWS V14.01,2013-06-09 19:57:00,
2013-06-09 15:58:00,74.8,54.4,30.07,West,279,5.0,13.0,49,0.00,,---,0.00,VWS V14.01,2013-06-09 19:58:00,
2013-06-09 15:59:00,74.8,54.9,30.07,WNW,295,5.0,8.0,50,0.00,,---,0.00,VWS V14.01,2013-06-09 19:59:00,
2013-06-09 16:01:00,74.9,55.0,30.07,NW,304,2.0,8.0,50,0.00,,---,0.00,VWS V14.01,2013-06-09 20:01:00,
2013-06-09 16:02:00,74.9,55.0,30.07,SW,226,0.0,8.0,50,0.00,,---,0.00,VWS V14.01,2013-06-09 20:02:00,
2013-06-09 16:03:00,75.1,55.8,30.07,SW,233,7.0,8.0,51,0.00,,---,0.00,VWS V14.01,2013-06-09 20:03:00,
2013-06-09 16:04:00,75.2,55.3,30.07,WSW,238,6.0,8.0,50,0.00,,---,0.00,VWS V14.01,2013-06-09 20:04:00,
2013-06-09 16:07:00,75.1,55.2,30.07,WSW,255,3.0,11.0,50,0.00,,---,0.00,VWS V14.01,2013-06-09 20:07:00,
2013-06-09 16:09:00,75.3,54.8,30.07,NNW,340,5.0,11.0,49,0.00,,---,0.00,VWS V14.01,2013-06-09 20:09:00,
2013-06-09 16:10:00,75.3,54.8,30.07,West,280,8.0,11.0,49,0.00,,---,0.00,VWS V14.01,2013-06-09 20:10:00,
2013-06-09 16:12:00,75.0,55.1,30.07,WSW,255,1.0,11.0,50,0.00,,---,0.00,VWS V14.01,2013-06-09 20:12:00,
2013-06-09 16:13:00,74.9,55.0,30.07,West,259,1.0,11.0,50,0.00,,---,0.00,VWS V14.01,2013-06-09 20:13:00,
2013-06-09 16:14:00,75.0,55.7,30.07,WNW,284,2.0,11.0,51,0.00,,---,0.00,VWS V14.01,2013-06-09 20:14:00,
2013-06-09 16:15:00,75.0,55.1,30.07,West,277,4.0,11.0,50,0.00,,---,0.00,VWS V14.01,2013-06-09 20:15:00,
2013-06-09 16:18:00,74.8,55.5,30.07,WSW,244,6.0,11.0,51,0.00,,---,0.00,VWS V14.01,2013-06-09 20:18:00,
2013-06-09 16:19:00,74.7,55.4,30.07,SW,235,1.0,11.0,51,0.00,,---,0.00,VWS V14.01,2013-06-09 20:19:00,
2013-06-09 16:20:00,74.6,54.8,30.06,West,278,3.0,11.0,50,0.00,,---,0.00,VWS V14.01,2013-06-09 20:20:00,
2013-06-09 16:22:00,74.5,54.7,30.07,West,266,4.0,11.0,50,0.00,,---,0.00,VWS V14.01,2013-06-09 20:22:00,
2013-06-09 16:23:00,74.5,55.2,30.07,SW,231,5.0,11.0,51,0.00,,---,0.00,VWS V14.01,2013-06-09 20:23:00,
2013-06-09 16:24:00,74.6,55.3,30.07,SW,231,4.0,11.0,51,0.00,,---,0.00,VWS V14.01,2013-06-09 20:24:00,
2013-06-09 16:25:00,74.7,55.4,30.07,WSW,250,10.0,12.0,51,0.00,,---,0.00,VWS V14.01,2013-06-09 20:25:00,
2013-06-09 16:28:00,74.7,55.4,30.07,SW,236,2.0,12.0,51,0.00,,---,0.00,VWS V14.01,2013-06-09 20:28:00,
2013-06-09 16:29:00,74.8,55.5,30.06,West,280,2.0,7.0,51,0.00,,---,0.00,VWS V14.01,2013-06-09 20:29:00,
2013-06-09 16:30:00,74.9,55.6,30.06,NW,325,1.0,7.0,51,0.00,,---,0.00,VWS V14.01,2013-06-09 20:30:00,
2013-06-09 16:32:00,75.0,55.7,30.06,WSW,257,4.0,7.0,51,0.00,,---,0.00,VWS V14.01,2013-06-09 20:32:00,
2013-06-09 16:34:00,75.2,55.3,30.06,NNW,328,6.0,7.0,50,0.00,,---,0.00,VWS V14.01,2013-06-09 20:34:00,
2013-06-09 16:35:00,75.2,55.3,30.06,SW,233,9.0,9.0,50,0.00,,---,0.00,VWS V14.01,2013-06-09 20:35:00,
2013-06-09 16:37:00,74.9,55.0,30.06,West,273,3.0,10.0,50,0.00,,---,0.00,VWS V14.01,2013-06-09 20:37:00,
2013-06-09 16:39:00,74.6,55.3,30.07,WSW,237,5.0,10.0,51,0.00,,---,0.00,VWS V14.01,2013-06-09 20:39:00,
2013-06-09 16:40:00,74.6,54.8,30.06,WSW,250,2.0,10.0,50,0.00,,---,0.00,VWS V14.01,2013-06-09 20:40:00,
2013-06-09 16:42:00,74.6,55.3,30.06,West,269,3.0,10.0,51,0.00,,---,0.00,VWS V14.01,2013-06-09 20:42:00,
2013-06-09 16:43:00,74.6,55.3,30.06,WSW,255,4.0,10.0,51,0.00,,---,0.00,VWS V14.01,2013-06-09 20:43:00,
2013-06-09 16:44:00,74.6,55.3,30.07,WSW,245,7.0,10.0,51,0.00,,---,0.00,VWS V14.01,2013-06-09 20:44:00,
2013-06-09 16:47:00,74.5,55.2,30.06,WSW,244,6.0,12.0,51,0.00,,---,0.00,VWS V14.01,2013-06-09 20:47:00,
2013-06-09 16:48:00,74.4,55.7,30.06,WNW,283,7.0,12.0,52,0.00,,---,0.00,VWS V14.01,2013-06-09 20:48:00,
2013-06-09 16:49:00,74.4,55.7,30.06,WSW,255,7.0,12.0,52,0.00,,---,0.00,VWS V14.01,2013-06-09 20:49:00,
2013-06-09 16:50:00,74.4,55.7,30.06,WSW,257,8.0,12.0,52,0.00,,---,0.00,VWS V14.01,2013-06-09 20:50:00,
2013-06-09 16:52:00,74.5,55.2,30.06,WSW,248,7.0,12.0,51,0.00,,---,0.00,VWS V14.01,2013-06-09 20:52:00,
2013-06-09 16:53:00,74.5,55.2,30.06,West,276,3.0,12.0,51,0.00,,---,0.00,VWS V14.01,2013-06-09 20:53:00,
2013-06-09 16:54:00,74.6,55.3,30.06,WSW,248,6.0,12.0,51,0.00,,---,0.00,VWS V14.01,2013-06-09 20:54:00,
2013-06-09 16:55:00,74.6,55.3,30.06,WNW,291,8.0,12.0,51,0.00,,---,0.00,VWS V14.01,2013-06-09 20:55:00,
2013-06-09 16:57:00,74.6,55.3,30.06,NW,308,3.0,12.0,51,0.00,,---,0.00,VWS V14.01,2013-06-09 20:57:00,
2013-06-09 16:59:00,74.7,55.4,30.06,WNW,302,5.0,5.0,51,0.00,,---,0.00,VWS V14.01,2013-06-09 20:59:00,
2013-06-09 17:00:00,74.8,55.5,30.06,WNW,290,2.0,5.0,51,0.00,,---,0.00,VWS V14.01,2013-06-09 21:00:00,
2013-06-09 17:03:00,75.1,55.8,30.06,WSW,250,7.0,9.0,51,0.00,,---,0.00,VWS V14.01,2013-06-09 21:03:00,
2013-06-09 17:04:00,75.1,55.2,30.06,West,260,7.0,9.0,50,0.00,,---,0.00,VWS V14.01,2013-06-09 21:04:00,
2013-06-09 17:05:00,75.1,54.7,30.07,West,281,4.0,9.0,49,0.00,,---,0.00,VWS V14.01,2013-06-09 21:05:00,
2013-06-09 17:06:00,75.1,55.2,30.07,WSW,243,7.0,9.0,50,0.00,,---,0.00,VWS V14.01,2013-06-09 21:06:00,
2013-06-09 17:07:00,75.2,55.3,30.07,WSW,244,1.0,9.0,50,0.00,,---,0.00,VWS V14.01,2013-06-09 21:07:00,
2013-06-09 17:09:00,75.4,54.9,30.06,NW,315,3.0,9.0,49,0.00,,---,0.00,VWS V14.01,2013-06-09 21:09:00,
2013-06-09 17:11:00,75.5,55.0,30.06,West,269,0.0,9.0,49,0.00,,---,0.00,VWS V14.01,2013-06-09 21:11:00,
2013-06-09 17:12:00,75.6,55.7,30.06,WSW,242,7.0,9.0,50,0.00,,---,0.00,VWS V14.01,2013-06-09 21:12:00,
2013-06-09 17:14:00,75.4,55.5,30.06,WSW,243,5.0,9.0,50,0.00,,---,0.00,VWS V14.01,2013-06-09 21:14:00,
2013-06-09 17:15:00,75.3,55.4,30.06,West,269,2.0,9.0,50,0.00,,---,0.00,VWS V14.01,2013-06-09 21:15:00,
2013-06-09 17:17:00,75.2,55.8,30.06,West,280,5.0,9.0,51,0.00,,---,0.00,VWS V14.01,2013-06-09 21:17:00,
2013-06-09 17:20:00,75.2,55.3,30.06,SW,235,4.0,9.0,50,0.00,,---,0.00,VWS V14.01,2013-06-09 21:20:00,
2013-06-09 17:21:00,75.3,55.4,30.06,WSW,250,5.0,9.0,50,0.00,,---,0.00,VWS V14.01,2013-06-09 21:21:00,
2013-06-09 17:22:00,75.3,55.4,30.06,WNW,286,3.0,9.0,50,0.00,,---,0.00,VWS V14.01,2013-06-09 21:22:00,
2013-06-09 17:23:00,75.3,55.4,30.06,WNW,293,1.0,9.0,50,0.00,,---,0.00,VWS V14.01,2013-06-09 21:23:00,
2013-06-09 17:26:00,75.5,55.0,30.06,WNW,294,4.0,9.0,49,0.00,,---,0.00,VWS V14.01,2013-06-09 21:26:00,
2013-06-09 17:27:00,75.5,55.0,30.06,WSW,248,2.0,9.0,49,0.00,,---,0.00,VWS V14.01,2013-06-09 21:27:00,
2013-06-09 17:28:00,75.6,55.7,30.07,WSW,248,3.0,4.0,50,0.00,,---,0.00,VWS V14.01,2013-06-09 21:28:00,
2013-06-09 17:30:00,75.7,55.8,30.06,SW,224,2.0,4.0,50,0.00,,---,0.00,VWS V14.01,2013-06-09 21:30:00,
2013-06-09 17:32:00,75.7,55.2,30.07,SW,214,2.0,6.0,49,0.00,,---,0.00,VWS V14.01,2013-06-09 21:32:00,
2013-06-09 17:33:00,75.5,55.0,30.06,West,276,3.0,7.0,49,0.00,,---,0.00,VWS V14.01,2013-06-09 21:33:00,
2013-06-09 17:36:00,75.3,55.9,30.07,WSW,257,4.0,7.0,51,0.00,,---,0.00,VWS V14.01,2013-06-09 21:36:00,
2013-06-09 17:37:00,75.3,55.4,30.07,SSW,202,4.0,7.0,50,0.00,,---,0.00,VWS V14.01,2013-06-09 21:37:00,
2013-06-09 17:38:00,75.2,54.8,30.07,SE,134,2.0,8.0,49,0.00,,---,0.00,VWS V14.01,2013-06-09 21:38:00,
2013-06-09 17:42:00,75.2,55.3,30.07,WSW,239,7.0,8.0,50,0.00,,---,0.00,VWS V14.01,2013-06-09 21:42:00,
2013-06-09 17:44:00,75.1,55.2,30.07,SSW,200,3.0,8.0,50,0.00,,---,0.00,VWS V14.01,2013-06-09 21:44:00,
2013-06-09 17:47:00,75.1,54.7,30.07,West,267,3.0,10.0,49,0.00,,---,0.00,VWS V14.01,2013-06-09 21:47:00,
2013-06-09 17:48:00,75.1,54.7,30.07,WSW,244,5.0,10.0,49,0.00,,---,0.00,VWS V14.01,2013-06-09 21:48:00,
2013-06-09 17:49:00,75.0,54.6,30.07,WSW,257,4.0,10.0,49,0.00,,---,0.00,VWS V14.01,2013-06-09 21:49:00,
2013-06-09 17:52:00,75.2,55.8,30.07,SW,229,2.0,10.0,51,0.00,,---,0.00,VWS V14.01,2013-06-09 21:52:00,
2013-06-09 17:53:00,75.2,55.3,30.07,SW,226,3.0,10.0,50,0.00,,---,0.00,VWS V14.01,2013-06-09 21:53:00,
2013-06-09 17:54:00,75.3,55.4,30.07,NW,307,3.0,10.0,50,0.00,,---,0.00,VWS V14.01,2013-06-09 21:54:00,
2013-06-09 17:56:00,75.3,55.4,30.07,SW,227,5.0,10.0,50,0.00,,---,0.00,VWS V14.01,2013-06-09 21:56:00,
2013-06-09 17:57:00,75.4,55.5,30.06,West,264,2.0,10.0,50,0.00,,---,0.00,VWS V14.01,2013-06-09 21:57:00,
2013-06-09 17:59:00,75.4,54.9,30.06,West,277,6.0,7.0,49,0.00,,---,0.00,VWS V14.01,2013-06-09 21:59:00,
2013-06-09 18:01:00,75.1,54.7,30.06,WSW,243,5.0,8.0,49,0.00,,---,0.00,VWS V14.01,2013-06-09 22:01:00,
2013-06-09 18:02:00,75.1,54.7,30.06,West,278,6.0,8.0,49,0.00,,---,0.00,VWS V14.01,2013-06-09 22:02:00,
2013-06-09 18:03:00,75.1,54.7,30.06,West,281,3.0,8.0,49,0.00,,---,0.00,VWS V14.01,2013-06-09 22:03:00,
2013-06-09 18:04:00,75.1,54.7,30.07,West,280,6.0,8.0,49,0.00,,---,0.00,VWS V14.01,2013-06-09 22:04:00,
2013-06-09 18:05:00,75.0,54.0,30.07,WSW,249,4.0,8.0,48,0.00,,---,0.00,VWS V14.01,2013-06-09 22:05:00,
2013-06-09 18:07:00,74.9,54.5,30.07,SW,233,2.0,8.0,49,0.00,,---,0.00,VWS V14.01,2013-06-09 22:07:00,
2013-06-09 18:08:00,74.9,54.5,30.07,SW,231,3.0,8.0,49,0.00,,---,0.00,VWS V14.01,2013-06-09 22:08:00,
2013-06-09 18:09:00,74.9,54.5,30.07,WNW,287,3.0,8.0,49,0.00,,---,0.00,VWS V14.01,2013-06-09 22:09:00,
2013-06-09 18:10:00,75.0,55.1,30.07,WNW,302,0.0,8.0,50,0.00,,---,0.00,VWS V14.01,2013-06-09 22:10:00,
2013-06-09 18:13:00,75.1,55.2,30.07,West,263,4.0,8.0,50,0.00,,---,0.00,VWS V14.01,2013-06-09 22:13:00,
2013-06-09 18:14:00,75.0,54.6,30.07,WSW,243,2.0,8.0,49,0.00,,---,0.00,VWS V14.01,2013-06-09 22:14:00,
2013-06-09 18:15:00,75.0,54.6,30.07,West,273,2.0,8.0,49,0.00,,---,0.00,VWS V14.01,2013-06-09 22:15:00,
2013-06-09 18:17:00,75.1,55.2,30.07,SSW,212,0.0,8.0,50,0.00,,---,0.00,VWS V14.01,2013-06-09 22:17:00,
2013-06-09 18:19:00,75.1,55.2,30.07,WSW,244,3.0,8.0,50,0.00,,---,0.00,VWS V14.01,2013-06-09 22:19:00,
2013-06-09 18:20:00,75.1,54.7,30.07,WSW,245,3.0,8.0,49,0.00,,---,0.00,VWS V14.01,2013-06-09 22:20:00,
2013-06-09 18:24:00,75.1,55.2,30.07,West,269,3.0,8.0,50,0.00,,---,0.00,VWS V14.01,2013-06-09 22:24:00,
2013-06-09 18:25:00,75.1,54.7,30.07,SSE,149,3.0,8.0,49,0.00,,---,0.00,VWS V14.01,2013-06-09 22:25:00,
2013-06-09 18:26:00,75.2,54.8,30.07,WSW,250,2.0,8.0,49,0.00,,---,0.00,VWS V14.01,2013-06-09 22:26:00,
2013-06-09 18:29:00,75.4,55.5,30.07,SSE,153,0.0,1.0,50,0.00,,---,0.00,VWS V14.01,2013-06-09 22:29:00,
2013-06-09 18:30:00,75.7,55.8,30.07,SW,226,0.0,1.0,50,0.00,,---,0.00,VWS V14.01,2013-06-09 22:30:00,
2013-06-09 18:31:00,75.8,55.3,30.07,SW,224,0.0,1.0,49,0.00,,---,0.00,VWS V14.01,2013-06-09 22:31:00,
2013-06-09 18:32:00,76.1,55.0,30.07,WNW,290,2.0,4.0,48,0.00,,---,0.00,VWS V14.01,2013-06-09 22:32:00,
2013-06-09 18:34:00,76.3,55.8,30.07,West,261,0.0,4.0,49,0.00,,---,0.00,VWS V14.01,2013-06-09 22:34:00,
2013-06-09 18:36:00,76.5,55.9,30.07,SW,231,0.0,4.0,49,0.00,,---,0.00,VWS V14.01,2013-06-09 22:36:00,
2013-06-09 18:37:00,76.6,56.0,30.07,WSW,254,0.0,4.0,49,0.00,,---,0.00,VWS V14.01,2013-06-09 22:37:00,
2013-06-09 18:39:00,76.6,56.6,30.07,SW,232,0.0,4.0,50,0.00,,---,0.00,VWS V14.01,2013-06-09 22:39:00,
2013-06-09 18:40:00,76.7,56.1,30.07,SSE,152,0.0,4.0,49,0.00,,---,0.00,VWS V14.01,2013-06-09 22:40:00,
2013-06-09 18:41:00,76.7,56.1,30.07,East,79,1.0,4.0,49,0.00,,---,0.00,VWS V14.01,2013-06-09 22:41:00,
2013-06-09 18:42:00,76.7,56.1,30.07,SSE,168,2.0,4.0,49,0.00,,---,0.00,VWS V14.01,2013-06-09 22:42:00,
2013-06-09 18:43:00,76.7,55.5,30.07,SW,236,2.0,4.0,48,0.00,,---,0.00,VWS V14.01,2013-06-09 22:43:00,
2013-06-09 18:45:00,76.6,54.9,30.07,WNW,302,3.0,4.0,47,0.00,,---,0.00,VWS V14.01,2013-06-09 22:45:00,
2013-06-09 18:47:00,76.4,54.7,30.07,South,181,1.0,4.0,47,0.00,,---,0.00,VWS V14.01,2013-06-09 22:47:00,
2013-06-09 18:48:00,76.4,55.3,30.07,ESE,113,1.0,4.0,48,0.00,,---,0.00,VWS V14.01,2013-06-09 22:48:00,
2013-06-09 18:50:00,76.2,55.1,30.07,WSW,244,2.0,4.0,48,0.00,,---,0.00,VWS V14.01,2013-06-09 22:50:00,
2013-06-09 18:52:00,76.1,55.6,30.07,WSW,240,0.0,4.0,49,0.00,,---,0.00,VWS V14.01,2013-06-09 22:52:00,
2013-06-09 18:53:00,76.1,55.6,30.07,WSW,240,1.0,4.0,49,0.00,,---,0.00,VWS V14.01,2013-06-09 22:53:00,
2013-06-09 18:54:00,76.1,56.1,30.07,SW,224,1.0,4.0,50,0.00,,---,0.00,VWS V14.01,2013-06-09 22:54:00,
2013-06-09 18:55:00,76.1,55.6,30.07,South,176,3.0,4.0,49,0.00,,---,0.00,VWS V14.01,2013-06-09 22:55:00,
2013-06-09 18:56:00,76.1,55.0,30.07,WSW,240,2.0,4.0,48,0.00,,---,0.00,VWS V14.01,2013-06-09 22:56:00,
2013-06-09 18:58:00,75.9,56.0,30.07,SW,214,2.0,4.0,50,0.00,,---,0.00,VWS V14.01,2013-06-09 22:58:00,
2013-06-09 18:59:00,75.8,55.3,30.07,WSW,240,3.0,4.0,49,0.00,,---,0.00,VWS V14.01,2013-06-09 22:59:00,
2013-06-09 19:00:00,75.7,55.2,30.07,WSW,250,2.0,4.0,49,0.00,,---,0.00,VWS V14.01,2013-06-09 23:00:00,
2013-06-09 19:01:00,75.6,55.7,30.07,SW,222,0.0,4.0,50,0.00,,---,0.00,VWS V14.01,2013-06-09 23:01:00,
2013-06-09 19:02:00,75.5,55.6,30.07,SW,221,0.0,4.0,50,0.00,,---,0.00,VWS V14.01,2013-06-09 23:02:00,
2013-06-09 19:05:00,75.4,56.0,30.07,SW,218,2.0,4.0,51,0.00,,---,0.00,VWS V14.01,2013-06-09 23:05:00,
2013-06-09 19:06:00,75.5,56.1,30.07,SW,232,2.0,4.0,51,0.00,,---,0.00,VWS V14.01,2013-06-09 23:06:00,
2013-06-09 19:09:00,75.4,56.0,30.07,West,263,1.0,4.0,51,0.00,,---,0.00,VWS V14.01,2013-06-09 23:09:00,
2013-06-09 19:10:00,75.3,55.9,30.07,SW,214,1.0,4.0,51,0.00,,---,0.00,VWS V14.01,2013-06-09 23:10:00,
2013-06-09 19:11:00,75.3,55.9,30.07,SW,225,1.0,4.0,51,0.00,,---,0.00,VWS V14.01,2013-06-09 23:11:00,
2013-06-09 19:12:00,75.1,56.3,30.07,WSW,242,1.0,4.0,52,0.00,,---,0.00,VWS V14.01,2013-06-09 23:12:00,
2013-06-09 19:15:00,74.8,56.0,30.08,SW,232,1.0,4.0,52,0.00,,---,0.00,VWS V14.01,2013-06-09 23:15:00,
2013-06-09 19:16:00,74.7,55.9,30.08,SW,228,0.0,4.0,52,0.00,,---,0.00,VWS V14.01,2013-06-09 23:16:00,
2013-06-09 19:18:00,74.6,56.4,30.07,SW,227,0.0,4.0,53,0.00,,---,0.00,VWS V14.01,2013-06-09 23:18:00,
2013-06-09 19:20:00,74.6,55.3,30.07,SW,228,0.0,4.0,51,0.00,,---,0.00,VWS V14.01,2013-06-09 23:20:00,
2013-06-09 19:21:00,74.6,56.4,30.08,SW,228,0.0,4.0,53,0.00,,---,0.00,VWS V14.01,2013-06-09 23:21:00,
2013-06-09 19:22:00,74.6,56.4,30.07,SW,227,0.0,4.0,53,0.00,,---,0.00,VWS V14.01,2013-06-09 23:22:00,
2013-06-09 19:24:00,74.6,56.9,30.08,SW,225,0.0,4.0,54,0.00,,---,0.00,VWS V14.01,2013-06-09 23:24:00,
2013-06-09 19:25:00,74.5,56.8,30.07,SW,225,0.0,4.0,54,0.00,,---,0.00,VWS V14.01,2013-06-09 23:25:00,
2013-06-09 19:27:00,74.3,57.1,30.08,SW,225,0.0,4.0,55,0.00,,---,0.00,VWS V14.01,2013-06-09 23:27:00,
2013-06-09 19:28:00,74.0,56.3,30.08,SW,218,2.0,4.0,54,0.00,,---,0.00,VWS V14.01,2013-06-09 23:28:00,
2013-06-09 19:29:00,73.6,57.0,30.08,WSW,245,0.0,2.0,56,0.00,,---,0.00,VWS V14.01,2013-06-09 23:29:00,
2013-06-09 19:30:00,73.3,58.1,30.08,WSW,244,1.0,2.0,59,0.00,,---,0.00,VWS V14.01,2013-06-09 23:30:00,
2013-06-09 19:32:00,72.8,57.7,30.08,SW,235,1.0,2.0,59,0.00,,---,0.00,VWS V14.01,2013-06-09 23:32:00,
2013-06-09 19:33:00,72.6,57.5,30.08,WSW,245,1.0,2.0,59,0.00,,---,0.00,VWS V14.01,2013-06-09 23:33:00,
2013-06-09 19:35:00,72.1,57.0,30.08,WSW,250,1.0,2.0,59,0.00,,---,0.00,VWS V14.01,2013-06-09 23:35:00,
2013-06-09 19:36:00,72.0,56.9,30.08,West,260,1.0,2.0,59,0.00,,---,0.00,VWS V14.01,2013-06-09 23:36:00,
2013-06-09 19:38:00,71.6,57.0,30.08,West,259,2.0,2.0,60,0.00,,---,0.00,VWS V14.01,2013-06-09 23:38:00,
2013-06-09 19:40:00,71.5,56.4,30.08,WSW,250,1.0,2.0,59,0.00,,---,0.00,VWS V14.01,2013-06-09 23:40:00,
2013-06-09 19:41:00,71.4,56.3,30.08,West,262,1.0,2.0,59,0.00,,---,0.00,VWS V14.01,2013-06-09 23:41:00,
2013-06-09 19:42:00,71.4,56.3,30.08,West,263,1.0,2.0,59,0.00,,---,0.00,VWS V14.01,2013-06-09 23:42:00,
2013-06-09 19:44:00,71.2,56.2,30.08,West,262,0.0,2.0,59,0.00,,---,0.00,VWS V14.01,2013-06-09 23:44:00,
2013-06-09 19:46:00,71.2,56.2,30.08,West,262,0.0,2.0,59,0.00,,---,0.00,VWS V14.01,2013-06-09 23:46:00,
2013-06-09 19:47:00,71.2,56.2,30.08,WSW,254,0.0,2.0,59,0.00,,---,0.00,VWS V14.01,2013-06-09 23:47:00,
2013-06-09 19:49:00,71.0,56.0,30.08,WSW,251,0.0,2.0,59,0.00,,---,0.00,VWS V14.01,2013-06-09 23:49:00,
2013-06-09 19:51:00,71.0,56.0,30.08,WSW,255,0.0,2.0,59,0.00,,---,0.00,VWS V14.01,2013-06-09 23:51:00,
2013-06-09 19:52:00,70.9,55.9,30.08,West,260,0.0,2.0,59,0.00,,---,0.00,VWS V14.01,2013-06-09 23:52:00,
2013-06-09 19:54:00,70.8,55.8,30.08,West,261,0.0,2.0,59,0.00,,---,0.00,VWS V14.01,2013-06-09 23:54:00,
2013-06-09 19:57:00,70.7,55.7,30.09,West,261,0.0,2.0,59,0.00,,---,0.00,VWS V14.01,2013-06-09 23:57:00,
2013-06-09 19:59:00,70.6,55.6,30.09,West,260,0.0,0.0,59,0.00,,---,0.00,VWS V14.01,2013-06-09 23:59:00,
2013-06-09 20:01:00,70.5,56.9,30.09,West,260,0.0,0.0,62,0.00,,---,0.00,VWS V14.01,2013-06-10 00:01:00,
2013-06-09 20:02:00,70.4,55.9,30.09,West,260,0.0,0.0,60,0.00,,---,0.00,VWS V14.01,2013-06-10 00:02:00,
2013-06-09 20:03:00,70.4,55.9,30.09,West,260,0.0,0.0,60,0.00,,---,0.00,VWS V14.01,2013-06-10 00:03:00,
2013-06-09 20:04:00,70.3,56.2,30.09,West,261,0.0,0.0,61,0.00,,---,0.00,VWS V14.01,2013-06-10 00:04:00,
2013-06-09 20:06:00,70.1,55.6,30.09,West,260,0.0,1.0,60,0.00,,---,0.00,VWS V14.01,2013-06-10 00:06:00,
2013-06-09 20:07:00,70.0,55.5,30.09,West,260,1.0,1.0,60,0.00,,---,0.00,VWS V14.01,2013-06-10 00:07:00,
2013-06-09 20:08:00,69.9,55.4,30.09,West,260,0.0,1.0,60,0.00,,---,0.00,VWS V14.01,2013-06-10 00:08:00,
2013-06-09 20:10:00,69.8,55.3,30.09,West,267,1.0,1.0,60,0.00,,---,0.00,VWS V14.01,2013-06-10 00:10:00,
2013-06-09 20:12:00,69.7,55.2,30.09,WNW,290,1.0,1.0,60,0.00,,---,0.00,VWS V14.01,2013-06-10 00:12:00,
2013-06-09 20:13:00,69.6,55.1,30.09,WNW,283,1.0,2.0,60,0.00,,---,0.00,VWS V14.01,2013-06-10 00:13:00,
2013-06-09 20:16:00,69.4,55.4,30.09,WNW,288,2.0,2.0,61,0.00,,---,0.00,VWS V14.01,2013-06-10 00:16:00,
2013-06-09 20:17:00,69.4,54.9,30.09,WNW,287,1.0,2.0,60,0.00,,---,0.00,VWS V14.01,2013-06-10 00:17:00,
2013-06-09 20:18:00,69.4,54.9,30.09,WNW,287,1.0,2.0,60,0.00,,---,0.00,VWS V14.01,2013-06-10 00:18:00,
2013-06-09 20:19:00,69.3,55.3,30.09,WNW,289,1.0,2.0,61,0.00,,---,0.00,VWS V14.01,2013-06-10 00:19:00,
2013-06-09 20:22:00,69.1,55.1,30.09,West,281,1.0,2.0,61,0.00,,---,0.00,VWS V14.01,2013-06-10 00:22:00,
2013-06-09 20:23:00,69.1,54.7,30.09,West,279,1.0,2.0,60,0.00,,---,0.00,VWS V14.01,2013-06-10 00:23:00,
2013-06-09 20:24:00,69.0,54.5,30.09,WNW,282,1.0,3.0,60,0.00,,---,0.00,VWS V14.01,2013-06-10 00:24:00,
2013-06-09 20:28:00,68.9,54.5,30.09,West,276,1.0,3.0,60,0.00,,---,0.00,VWS V14.01,2013-06-10 00:28:00,
2013-06-09 20:29:00,68.8,54.4,30.09,West,281,2.0,3.0,60,0.00,,---,0.00,VWS V14.01,2013-06-10 00:29:00,
2013-06-09 20:30:00,68.8,54.4,30.09,WNW,287,1.0,3.0,60,0.00,,---,0.00,VWS V14.01,2013-06-10 00:30:00,
2013-06-09 20:33:00,68.7,54.3,30.09,SW,215,1.0,3.0,60,0.00,,---,0.00,VWS V14.01,2013-06-10 00:33:00,
2013-06-09 20:34:00,68.7,54.3,30.09,West,267,1.0,3.0,60,0.00,,---,0.00,VWS V14.01,2013-06-10 00:34:00,
2013-06-09 20:35:00,68.7,54.3,30.09,West,271,0.0,3.0,60,0.00,,---,0.00,VWS V14.01,2013-06-10 00:35:00,
2013-06-09 20:36:00,68.6,54.6,30.09,West,272,0.0,3.0,61,0.00,,---,0.00,VWS V14.01,2013-06-10 00:36:00,
2013-06-09 20:39:00,68.5,54.5,30.09,SE,140,1.0,3.0,61,0.00,,---,0.00,VWS V14.01,2013-06-10 00:39:00,
2013-06-09 20:40:00,68.5,55.0,30.09,SE,139,1.0,3.0,62,0.00,,---,0.00,VWS V14.01,2013-06-10 00:40:00,
2013-06-09 20:41:00,68.3,55.7,30.09,ENE,75,2.0,3.0,64,0.00,,---,0.00,VWS V14.01,2013-06-10 00:41:00,
2013-06-09 20:44:00,67.5,58.2,30.10,East,86,3.0,5.0,72,0.00,,---,0.00,VWS V14.01,2013-06-10 00:44:00,
2013-06-09 20:45:00,67.2,57.9,30.10,ENE,73,2.0,5.0,72,0.00,,---,0.00,VWS V14.01,2013-06-10 00:45:00,
2013-06-09 20:46:00,66.9,57.6,30.10,East,85,4.0,5.0,72,0.00,,---,0.00,VWS V14.01,2013-06-10 00:46:00,
2013-06-09 20:47:00,66.6,56.9,30.10,East,84,3.0,5.0,71,0.00,,---,0.00,VWS V14.01,2013-06-10 00:47:00,
2013-06-09 20:49:00,66.3,57.0,30.10,East,80,3.0,5.0,72,0.00,,---,0.00,VWS V14.01,2013-06-10 00:49:00,
2013-06-09 20:51:00,66.2,56.9,30.10,East,96,2.0,5.0,72,0.00,,---,0.00,VWS V14.01,2013-06-10 00:51:00,
2013-06-09 20:52:00,66.1,56.8,30.10,East,93,2.0,5.0,72,0.00,,---,0.00,VWS V14.01,2013-06-10 00:52:00,
2013-06-09 20:53:00,66.1,56.8,30.10,East,86,2.0,5.0,72,0.00,,---,0.00,VWS V14.01,2013-06-10 00:53:00,
2013-06-09 20:54:00,66.1,56.8,30.10,East,91,1.0,5.0,72,0.00,,---,0.00,VWS V14.01,2013-06-10 00:54:00,
2013-06-09 20:57:00,66.0,57.1,30.10,East,91,0.0,5.0,73,0.00,,---,0.00,VWS V14.01,2013-06-10 00:57:00,
2013-06-09 20:58:00,65.9,57.0,30.10,East,90,0.0,5.0,73,0.00,,---,0.00,VWS V14.01,2013-06-10 00:58:00,
2013-06-09 20:59:00,65.8,56.9,30.10,East,90,1.0,2.0,73,0.00,,---,0.00,VWS V14.01,2013-06-10 00:59:00,
2013-06-09 21:00:00,65.8,56.9,30.10,East,91,1.0,2.0,73,0.00,,---,0.00,VWS V14.01,2013-06-10 01:00:00,
2013-06-09 21:03:00,65.5,56.6,30.10,East,98,1.0,2.0,73,0.00,,---,0.00,VWS V14.01,2013-06-10 01:03:00,
2013-06-09 21:04:00,65.4,56.5,30.10,East,98,1.0,2.0,73,0.00,,---,0.00,VWS V14.01,2013-06-10 01:04:00,
2013-06-09 21:05:00,65.4,56.5,30.10,East,98,1.0,2.0,73,0.00,,---,0.00,VWS V14.01,2013-06-10 01:05:00,
2013-06-09 21:08:00,65.6,56.3,30.10,East,98,1.0,2.0,72,0.00,,---,0.00,VWS V14.01,2013-06-10 01:08:00,
2013-06-09 21:09:00,65.6,56.3,30.10,ESE,107,1.0,2.0,72,0.00,,---,0.00,VWS V14.01,2013-06-10 01:09:00,
2013-06-09 21:10:00,65.7,56.0,30.10,ESE,104,1.0,2.0,71,0.00,,---,0.00,VWS V14.01,2013-06-10 01:10:00,
2013-06-09 21:14:00,66.0,56.0,30.11,SW,228,1.0,3.0,70,0.00,,---,0.00,VWS V14.01,2013-06-10 01:14:00,
2013-06-09 21:15:00,66.0,56.0,30.11,SW,228,1.0,3.0,70,0.00,,---,0.00,VWS V14.01,2013-06-10 01:15:00,
2013-06-09 21:19:00,66.2,55.7,30.11,SW,233,2.0,3.0,69,0.00,,---,0.00,VWS V14.01,2013-06-10 01:19:00,
2013-06-09 21:20:00,66.3,55.8,30.11,WSW,238,2.0,3.0,69,0.00,,---,0.00,VWS V14.01,2013-06-10 01:20:00,
2013-06-09 21:21:00,66.3,55.8,30.11,SW,228,1.0,3.0,69,0.00,,---,0.00,VWS V14.01,2013-06-10 01:21:00,
2013-06-09 21:22:00,66.3,55.8,30.11,SW,229,1.0,3.0,69,0.00,,---,0.00,VWS V14.01,2013-06-10 01:22:00,
2013-06-09 21:25:00,66.4,55.9,30.11,SW,232,2.0,3.0,69,0.00,,---,0.00,VWS V14.01,2013-06-10 01:25:00,
2013-06-09 21:27:00,66.4,55.5,30.11,WSW,238,2.0,3.0,68,0.00,,---,0.00,VWS V14.01,2013-06-10 01:27:00,
2013-06-09 21:28:00,66.4,55.5,30.12,SW,229,1.0,3.0,68,0.00,,---,0.00,VWS V14.01,2013-06-10 01:28:00,
2013-06-09 21:31:00,66.6,55.7,30.11,SW,228,1.0,2.0,68,0.00,,---,0.00,VWS V14.01,2013-06-10 01:31:00,
2013-06-09 21:32:00,66.6,55.7,30.11,SW,233,1.0,2.0,68,0.00,,---,0.00,VWS V14.01,2013-06-10 01:32:00,
2013-06-09 21:33:00,66.6,55.7,30.11,SW,229,0.0,2.0,68,0.00,,---,0.00,VWS V14.01,2013-06-10 01:33:00,
2013-06-09 21:34:00,66.6,55.7,30.11,SW,231,1.0,2.0,68,0.00,,---,0.00,VWS V14.01,2013-06-10 01:34:00,
2013-06-09 21:36:00,66.6,55.7,30.12,SW,232,1.0,2.0,68,0.00,,---,0.00,VWS V14.01,2013-06-10 01:36:00,
2013-06-09 21:37:00,66.6,55.7,30.12,SW,232,1.0,2.0,68,0.00,,---,0.00,VWS V14.01,2013-06-10 01:37:00,
2013-06-09 21:38:00,66.6,55.7,30.12,SW,232,1.0,2.0,68,0.00,,---,0.00,VWS V14.01,2013-06-10 01:38:00,
2013-06-09 21:39:00,66.6,55.7,30.12,SW,232,1.0,2.0,68,0.00,,---,0.00,VWS V14.01,2013-06-10 01:39:00,
2013-06-09 21:40:00,66.6,56.1,30.12,SW,232,1.0,2.0,69,0.00,,---,0.00,VWS V14.01,2013-06-10 01:40:00,
2013-06-09 21:41:00,66.5,56.4,30.12,SW,236,2.0,2.0,70,0.00,,---,0.00,VWS V14.01,2013-06-10 01:41:00,
2013-06-09 21:42:00,66.4,56.3,30.12,WSW,244,2.0,3.0,70,0.00,,---,0.00,VWS V14.01,2013-06-10 01:42:00,
2013-06-09 21:44:00,65.8,56.2,30.12,WSW,257,3.0,3.0,71,0.00,,---,0.00,VWS V14.01,2013-06-10 01:44:00,
2013-06-09 21:45:00,65.7,56.0,30.12,WSW,250,2.0,3.0,71,0.00,,---,0.00,VWS V14.01,2013-06-10 01:45:00,
2013-06-09 21:47:00,65.0,56.2,30.12,WSW,240,2.0,3.0,73,0.00,,---,0.00,VWS V14.01,2013-06-10 01:47:00,
2013-06-09 21:48:00,64.9,56.0,30.12,WSW,238,1.0,3.0,73,0.00,,---,0.00,VWS V14.01,2013-06-10 01:48:00,
2013-06-09 21:50:00,64.2,55.8,30.12,SW,231,1.0,3.0,74,0.00,,---,0.00,VWS V14.01,2013-06-10 01:50:00,
2013-06-09 21:52:00,63.8,55.7,30.12,WSW,239,2.0,3.0,75,0.00,,---,0.00,VWS V14.01,2013-06-10 01:52:00,
2013-06-09 21:53:00,63.7,56.0,30.12,West,259,3.0,3.0,76,0.00,,---,0.00,VWS V14.01,2013-06-10 01:53:00,
2013-06-09 21:56:00,63.2,55.5,30.13,WSW,255,3.0,3.0,76,0.00,,---,0.00,VWS V14.01,2013-06-10 01:56:00,
2013-06-09 21:57:00,63.1,55.4,30.13,WSW,250,2.0,3.0,76,0.00,,---,0.00,VWS V14.01,2013-06-10 01:57:00,
2013-06-09 21:58:00,63.0,55.3,30.13,WSW,250,2.0,3.0,76,0.00,,---,0.00,VWS V14.01,2013-06-10 01:58:00,
2013-06-09 21:59:00,62.8,55.5,30.13,WSW,247,2.0,3.0,77,0.00,,---,0.00,VWS V14.01,2013-06-10 01:59:00,
2013-06-09 22:02:00,62.6,55.3,30.13,WSW,257,2.0,3.0,77,0.00,,---,0.00,VWS V14.01,2013-06-10 02:02:00,
2013-06-09 22:03:00,62.5,55.2,30.13,West,259,2.0,3.0,77,0.00,,---,0.00,VWS V14.01,2013-06-10 02:03:00,
2013-06-09 22:05:00,62.4,55.5,30.13,WSW,255,2.0,3.0,78,0.00,,---,0.00,VWS V14.01,2013-06-10 02:05:00,
2013-06-09 22:07:00,62.3,55.4,30.13,WSW,252,2.0,3.0,78,0.00,,---,0.00,VWS V14.01,2013-06-10 02:07:00,
2013-06-09 22:08:00,62.3,55.4,30.13,WSW,252,2.0,3.0,78,0.00,,---,0.00,VWS V14.01,2013-06-10 02:08:00,
2013-06-09 22:09:00,62.2,55.6,30.13,WSW,249,2.0,3.0,79,0.00,,---,0.00,VWS V14.01,2013-06-10 02:09:00,
2013-06-09 22:10:00,62.2,55.6,30.13,WSW,248,2.0,3.0,79,0.00,,---,0.00,VWS V14.01,2013-06-10 02:10:00,
2013-06-09 22:12:00,62.2,55.3,30.13,WSW,250,2.0,3.0,78,0.00,,---,0.00,VWS V14.01,2013-06-10 02:12:00,
2013-06-09 22:13:00,62.2,55.3,30.13,WSW,252,3.0,3.0,78,0.00,,---,0.00,VWS V14.01,2013-06-10 02:13:00,
2013-06-09 22:15:00,62.4,55.1,30.13,WSW,250,3.0,3.0,77,0.00,,---,0.00,VWS V14.01,2013-06-10 02:15:00,
2013-06-09 22:17:00,62.8,55.1,30.13,WSW,244,1.0,3.0,76,0.00,,---,0.00,VWS V14.01,2013-06-10 02:17:00,
2013-06-09 22:18:00,62.9,54.9,30.13,WSW,249,2.0,3.0,75,0.00,,---,0.00,VWS V14.01,2013-06-10 02:18:00,
2013-06-09 22:19:00,63.1,55.1,30.13,WSW,248,3.0,3.0,75,0.00,,---,0.00,VWS V14.01,2013-06-10 02:19:00,
2013-06-09 22:20:00,63.2,54.8,30.13,WSW,248,2.0,3.0,74,0.00,,---,0.00,VWS V14.01,2013-06-10 02:20:00,
2013-06-09 22:21:00,63.3,54.9,30.13,WSW,248,2.0,3.0,74,0.00,,---,0.00,VWS V14.01,2013-06-10 02:21:00,
2013-06-09 22:24:00,63.6,54.8,30.14,WSW,242,2.0,3.0,73,0.00,,---,0.00,VWS V14.01,2013-06-10 02:24:00,
2013-06-09 22:26:00,63.9,54.7,30.14,WSW,238,0.0,3.0,72,0.00,,---,0.00,VWS V14.01,2013-06-10 02:26:00,
2013-06-09 22:28:00,63.9,55.5,30.14,SW,236,1.0,1.0,74,0.00,,---,0.00,VWS V14.01,2013-06-10 02:28:00,
2013-06-09 22:29:00,63.7,55.3,30.14,WSW,238,1.0,1.0,74,0.00,,---,0.00,VWS V14.01,2013-06-10 02:29:00,
2013-06-09 22:30:00,63.6,55.5,30.14,SE,128,3.0,3.0,75,0.00,,---,0.00,VWS V14.01,2013-06-10 02:30:00,
2013-06-09 22:32:00,62.8,55.1,30.14,SE,135,1.0,3.0,76,0.00,,---,0.00,VWS V14.01,2013-06-10 02:32:00,
2013-06-09 22:33:00,62.2,55.3,30.14,SE,139,1.0,3.0,78,0.00,,---,0.00,VWS V14.01,2013-06-10 02:33:00,
2013-06-09 22:35:00,61.7,55.5,30.14,SE,141,0.0,3.0,80,0.00,,---,0.00,VWS V14.01,2013-06-10 02:35:00,
2013-06-09 22:36:00,61.7,55.5,30.14,SE,141,0.0,3.0,80,0.00,,---,0.00,VWS V14.01,2013-06-10 02:36:00,
2013-06-09 22:37:00,61.6,55.4,30.14,SE,143,1.0,3.0,80,0.00,,---,0.00,VWS V14.01,2013-06-10 02:37:00,
2013-06-09 22:39:00,61.4,55.5,30.14,SE,143,0.0,3.0,81,0.00,,---,0.00,VWS V14.01,2013-06-10 02:39:00,
2013-06-09 22:41:00,61.3,55.4,30.14,SE,143,1.0,3.0,81,0.00,,---,0.00,VWS V14.01,2013-06-10 02:41:00,
2013-06-09 22:42:00,61.2,55.7,30.14,SE,143,1.0,3.0,82,0.00,,---,0.00,VWS V14.01,2013-06-10 02:42:00,
2013-06-09 22:44:00,61.2,55.7,30.14,SE,143,1.0,3.0,82,0.00,,---,0.00,VWS V14.01,2013-06-10 02:44:00,
2013-06-09 22:46:00,61.2,55.7,30.14,SSE,165,0.0,3.0,82,0.00,,---,0.00,VWS V14.01,2013-06-10 02:46:00,
2013-06-09 22:49:00,61.2,55.3,30.14,SSE,165,0.0,3.0,81,0.00,,---,0.00,VWS V14.01,2013-06-10 02:49:00,
2013-06-09 22:50:00,61.2,55.3,30.14,SSE,165,0.0,3.0,81,0.00,,---,0.00,VWS V14.01,2013-06-10 02:50:00,
2013-06-09 22:51:00,61.2,55.3,30.14,SSE,165,1.0,3.0,81,0.00,,---,0.00,VWS V14.01,2013-06-10 02:51:00,
2013-06-09 22:52:00,61.2,55.3,30.14,SSE,165,1.0,3.0,81,0.00,,---,0.00,VWS V14.01,2013-06-10 02:52:00,
2013-06-09 22:54:00,61.3,55.4,30.14,SSE,165,0.0,3.0,81,0.00,,---,0.00,VWS V14.01,2013-06-10 02:54:00,
2013-06-09 22:56:00,61.3,55.4,30.14,SSE,165,0.0,3.0,81,0.00,,---,0.00,VWS V14.01,2013-06-10 02:56:00,
2013-06-09 22:57:00,61.3,55.1,30.14,SSE,167,1.0,3.0,80,0.00,,---,0.00,VWS V14.01,2013-06-10 02:57:00,
2013-06-09 22:58:00,61.4,55.2,30.14,SSE,166,0.0,3.0,80,0.00,,---,0.00,VWS V14.01,2013-06-10 02:58:00,
2013-06-09 23:00:00,61.4,54.8,30.14,South,183,0.0,1.0,79,0.00,,---,0.00,VWS V14.01,2013-06-10 03:00:00,
2013-06-09 23:01:00,61.4,55.2,30.14,South,183,1.0,1.0,80,0.00,,---,0.00,VWS V14.01,2013-06-10 03:01:00,
2013-06-09 23:02:00,61.4,54.5,30.14,South,183,1.0,1.0,78,0.00,,---,0.00,VWS V14.01,2013-06-10 03:02:00,
2013-06-09 23:03:00,61.4,54.5,30.14,South,190,1.0,1.0,78,0.00,,---,0.00,VWS V14.01,2013-06-10 03:03:00,
2013-06-09 23:04:00,61.4,54.8,30.16,SW,228,1.0,2.0,79,0.00,,---,0.00,VWS V14.01,2013-06-10 03:04:00,
2013-06-09 23:05:00,61.6,54.0,30.14,SSW,195,1.0,2.0,76,0.00,,---,0.00,VWS V14.01,2013-06-10 03:05:00,
2013-06-09 23:06:00,60.8,54.9,30.16,SW,228,1.0,2.0,81,0.00,,---,0.00,VWS V14.01,2013-06-10 03:06:00,
2013-06-09 23:07:00,61.9,54.3,30.14,SSW,195,1.0,2.0,76,0.00,,---,0.00,VWS V14.01,2013-06-10 03:07:00,
2013-06-09 23:08:00,60.2,54.7,30.16,SW,229,2.0,2.0,82,0.00,,---,0.00,VWS V14.01,2013-06-10 03:08:00,
2013-06-09 23:09:00,60.0,54.5,30.16,SW,229,2.0,2.0,82,0.00,,---,0.00,VWS V14.01,2013-06-10 03:09:00,
2013-06-09 23:10:00,62.6,54.2,30.15,South,172,1.0,2.0,74,0.00,,---,0.00,VWS V14.01,2013-06-10 03:10:00,
2013-06-09 23:11:00,59.7,54.2,30.16,WSW,238,3.0,3.0,82,0.00,,---,0.00,VWS V14.01,2013-06-10 03:11:00,
2013-06-09 23:12:00,62.8,54.8,30.15,SE,146,1.0,2.0,75,0.00,,---,0.00,VWS V14.01,2013-06-10 03:12:00,
2013-06-09 23:13:00,62.8,55.1,30.15,SE,134,1.0,2.0,76,0.00,,---,0.00,VWS V14.01,2013-06-10 03:13:00,
2013-06-09 23:14:00,62.7,55.4,30.15,ESE,122,3.0,3.0,77,0.00,,---,0.00,VWS V14.01,2013-06-10 03:14:00,
2013-06-09 23:15:00,59.4,54.2,30.16,WSW,240,2.0,3.0,83,0.00,,---,0.00,VWS V14.01,2013-06-10 03:15:00,
2013-06-09 23:16:00,62.0,55.1,30.15,ESE,118,4.0,4.0,78,0.00,,---,0.00,VWS V14.01,2013-06-10 03:16:00,
2013-06-09 23:17:00,61.9,55.0,30.15,ESE,118,4.0,4.0,78,0.00,,---,0.00,VWS V14.01,2013-06-10 03:17:00,
2013-06-09 23:18:00,61.6,54.7,30.15,ESE,118,4.0,4.0,78,0.00,,---,0.00,VWS V14.01,2013-06-10 03:18:00,
2013-06-09 23:19:00,61.4,54.8,30.15,ESE,120,3.0,4.0,79,0.00,,---,0.00,VWS V14.01,2013-06-10 03:19:00,
2013-06-09 23:20:00,61.0,54.5,30.15,ESE,122,3.0,4.0,79,0.00,,---,0.00,VWS V14.01,2013-06-10 03:20:00,
2013-06-09 23:21:00,59.3,54.5,30.16,SE,143,1.0,3.0,84,0.00,,---,0.00,VWS V14.01,2013-06-10 03:21:00,
2013-06-09 23:22:00,60.3,54.1,30.15,SE,127,2.0,4.0,80,0.00,,---,0.00,VWS V14.01,2013-06-10 03:22:00,
2013-06-09 23:23:00,60.2,54.0,30.15,SE,129,2.0,4.0,80,0.00,,---,0.00,VWS V14.01,2013-06-10 03:23:00,
2013-06-09 23:24:00,60.0,54.2,30.15,SW,222,2.0,4.0,81,0.00,,---,0.00,VWS V14.01,2013-06-10 03:24:00,
2013-06-09 23:27:00,60.1,53.9,30.16,SW,221,2.0,4.0,80,0.00,,---,0.00,VWS V14.01,2013-06-10 03:27:00,
2013-06-09 23:28:00,60.1,53.9,30.16,SW,219,1.0,4.0,80,0.00,,---,0.00,VWS V14.01,2013-06-10 03:28:00,
2013-06-09 23:29:00,60.2,53.7,30.16,SW,219,2.0,2.0,79,0.00,,---,0.00,VWS V14.01,2013-06-10 03:29:00,
2013-06-09 23:32:00,61.0,53.8,30.16,SW,224,2.0,3.0,77,0.00,,---,0.00,VWS V14.01,2013-06-10 03:32:00,
2013-06-09 23:34:00,61.6,53.6,30.15,SW,235,2.0,4.0,75,0.00,,---,0.00,VWS V14.01,2013-06-10 03:34:00,
2013-06-09 23:37:00,62.7,53.9,30.15,WSW,241,4.0,4.0,73,0.00,,---,0.00,VWS V14.01,2013-06-10 03:37:00,
2013-06-09 23:38:00,63.0,53.8,30.15,WSW,240,2.0,4.0,72,0.00,,---,0.00,VWS V14.01,2013-06-10 03:38:00,
2013-06-09 23:39:00,63.1,53.9,30.15,SW,236,2.0,4.0,72,0.00,,---,0.00,VWS V14.01,2013-06-10 03:39:00,
2013-06-09 23:40:00,63.3,53.8,30.15,WSW,239,3.0,4.0,71,0.00,,---,0.00,VWS V14.01,2013-06-10 03:40:00,
2013-06-09 23:42:00,63.6,54.0,30.15,WSW,243,3.0,5.0,71,0.00,,---,0.00,VWS V14.01,2013-06-10 03:42:00,
2013-06-09 23:44:00,63.8,54.2,30.15,SW,232,1.0,5.0,71,0.00,,---,0.00,VWS V14.01,2013-06-10 03:44:00,
2013-06-09 23:47:00,64.1,54.1,30.15,SW,229,1.0,5.0,70,0.00,,---,0.00,VWS V14.01,2013-06-10 03:47:00,
2013-06-09 23:49:00,64.3,54.3,30.15,SW,226,0.0,5.0,70,0.00,,---,0.00,VWS V14.01,2013-06-10 03:49:00,
2013-06-09 23:52:00,64.3,54.3,30.16,SW,226,1.0,5.0,70,0.00,,---,0.00,VWS V14.01,2013-06-10 03:52:00,
2013-06-09 23:53:00,64.3,55.1,30.16,WSW,239,2.0,5.0,72,0.00,,---,0.00,VWS V14.01,2013-06-10 03:53:00,
2013-06-09 23:55:00,63.9,55.1,30.16,SW,229,1.0,5.0,73,0.00,,---,0.00,VWS V14.01,2013-06-10 03:55:00,
2013-06-09 23:57:00,62.9,54.9,30.16,SW,226,0.0,5.0,75,0.00,,---,0.00,VWS V14.01,2013-06-10 03:57:00,
2013-06-09 23:59:00,62.5,54.8,30.16,SW,228,1.0,2.0,76,0.00,,---,0.00,VWS V14.01,2013-06-10 03:59:00,